Latitude: N 50° 09' 49" Longitude: W 05° 11' 53" Elevation: 168m ASL

There are 11 visitors online

Adverts

<- Previous Day | Today | Next Day ->

All Data for 14 June 2018

Time
A - D
Temp
A - D
Dew Point
A - D
Humidity
A - D
Pressure
A - D
Wind
A - D
Wind Dir Gust
A - D
Rain Rate
A - D
Rain Total
00:00 14.3 12.9 91 1014.5 13.0 SW 16.8 0.0 0.0
00:01 14.3 12.9 91 1014.4 13.0 SW 16.8 0.0 0.0
00:02 14.3 12.9 91 1014.3 13.0 SW 16.8 0.0 0.0
00:03 14.3 12.9 91 1014.3 13.0 SW 16.8 0.0 0.0
00:05 14.3 12.9 91 1014.5 16.8 S 16.8 0.0 0.0
00:06 14.3 12.9 91 1014.6 15.2 S 16.8 0.0 0.0
00:07 14.3 12.9 91 1014.5 15.2 S 16.8 0.0 0.0
00:08 14.3 12.9 91 1014.6 9.8 SE 16.8 0.0 0.0
00:09 14.3 12.9 91 1014.4 17.4 S 17.4 0.0 0.0
00:10 14.3 12.9 91 1014.4 15.9 S 17.4 0.0 0.0
00:11 14.3 12.9 91 1014.4 15.9 SE 17.4 0.0 0.0
00:12 14.3 12.9 91 1014.3 16.8 SE 17.4 0.0 0.0
00:13 14.3 12.9 91 1014.5 14.5 S 17.4 0.0 0.0
00:14 14.3 12.9 91 1014.3 14.5 S 17.4 0.0 0.0
00:15 14.3 12.9 91 1014.3 10.7 S 17.4 0.0 0.0
00:16 14.3 12.9 91 1014.3 16.8 S 17.4 0.0 0.0
00:17 14.3 12.9 91 1014.3 19.0 SW 19.0 0.0 0.0
00:18 14.3 12.9 91 1014.5 13.0 NW 19.0 0.0 0.0
00:19 14.3 12.9 91 1014.3 18.3 S 20.6 0.0 0.0
00:20 14.3 12.9 91 1014.4 15.9 S 20.6 0.0 0.0
00:21 14.3 12.9 91 1014.3 13.6 S 20.6 0.0 0.0
00:22 14.3 12.9 91 1014.4 23.5 S 23.5 0.0 0.0
00:23 14.3 12.9 91 1014.3 18.3 S 23.5 0.0 0.0
00:24 14.3 12.9 91 1014.3 14.5 S 23.5 0.0 0.0
00:25 14.3 12.9 91 1014.2 11.4 SW 23.5 0.0 0.0
00:26 14.3 12.9 91 1014.1 15.9 S 23.5 0.0 0.0
00:28 14.3 12.9 91 1014.2 12.1 SE 23.5 0.0 0.0
00:29 14.3 12.9 91 1014.1 15.9 S 23.5 0.0 0.0
00:30 14.3 12.9 91 1014.1 14.5 S 23.5 0.0 0.0
00:31 14.3 12.9 91 1014.2 14.5 S 23.5 0.0 0.0
00:32 14.3 12.9 91 1014.2 13.6 S 23.5 0.0 0.0
00:33 14.3 12.9 91 1014.1 13.6 S 18.3 0.0 0.0
00:34 14.3 12.9 91 1014.1 13.6 S 15.9 0.0 0.0
00:35 14.3 12.9 91 1014.1 13.0 S 15.9 0.0 0.0
00:36 14.3 12.9 91 1014.1 13.0 SE 15.9 0.0 0.0
00:37 14.3 12.9 91 1014.0 13.6 S 15.9 0.0 0.0
00:38 14.3 12.9 91 1014.0 15.2 S 15.9 0.0 0.0
00:39 14.3 13.0 92 1014.1 15.2 SE 19.7 0.0 0.0
00:40 14.3 13.0 92 1014.0 13.6 SE 19.7 0.0 0.0
00:41 14.3 13.0 92 1014.0 16.8 S 19.7 0.0 0.0
00:42 14.3 13.0 92 1013.9 15.9 S 19.7 0.0 0.0
00:43 14.3 13.0 92 1013.9 18.3 S 19.7 0.0 0.0
00:45 14.3 13.0 92 1013.8 16.8 S 19.7 0.0 0.0
00:46 14.3 13.0 92 1013.9 17.4 S 19.7 0.0 0.0
00:47 14.3 13.0 92 1013.8 13.6 S 19.7 0.0 0.0
00:48 14.3 13.0 92 1013.8 17.4 SSE 19.7 0.0 0.0
00:49 14.3 13.0 92 1013.8 13.6 NW 19.7 0.0 0.0
00:50 14.3 13.0 92 1013.8 19.0 S 19.7 0.0 0.0
00:52 14.3 13.0 92 1013.7 15.2 SW 19.7 0.0 0.0
00:53 14.3 13.0 92 1013.7 15.2 S 19.7 0.0 0.0
00:54 14.3 13.0 92 1013.8 16.8 SW 19.7 0.0 0.0
00:55 14.3 13.0 92 1013.6 15.9 SW 19.7 0.0 0.0
00:56 14.3 13.0 92 1013.7 22.1 SW 22.1 0.0 0.0
00:57 14.4 13.1 92 1013.4 17.4 SW 22.1 0.0 0.0
00:58 14.4 13.1 92 1013.6 12.1 S 22.1 0.0 0.0
00:59 14.4 13.1 92 1013.7 18.3 SSE 22.1 0.0 0.0
01:00 14.4 13.1 92 1013.8 18.3 SSE 22.1 0.0 0.0
01:01 14.4 13.1 92 1013.8 18.3 SSE 22.1 0.0 0.0
01:02 14.4 13.1 92 1013.7 13.0 S 22.1 0.0 0.0
01:03 14.4 13.1 92 1013.7 13.0 SW 22.1 0.0 0.0
01:04 14.4 13.3 93 1013.9 16.8 S 22.1 0.0 0.0
01:05 14.4 13.3 93 1013.7 18.3 SW 22.1 0.0 0.0
01:06 14.4 13.3 93 1013.7 15.9 S 22.1 0.0 0.0
01:07 14.4 13.3 93 1013.7 15.2 S 22.1 0.0 0.0
01:08 14.4 13.3 93 1013.6 16.8 SW 22.1 0.0 0.0
01:09 14.4 13.3 93 1013.5 17.4 S 18.3 0.0 0.0
01:10 14.4 13.3 93 1013.7 14.5 NW 18.3 0.0 0.0
01:11 14.4 13.3 93 1013.6 13.6 SW 18.3 0.0 0.0
01:12 14.4 13.3 93 1013.5 14.5 S 18.3 0.0 0.0
01:13 14.4 13.3 93 1013.7 20.6 SSW 20.6 0.0 0.0
01:15 14.4 13.3 93 1013.4 17.4 S 20.6 0.0 0.0
01:16 14.4 13.3 93 1013.4 20.6 SW 20.6 0.0 0.0
01:17 14.4 13.3 93 1013.6 22.8 S 22.8 0.0 0.0
01:19 14.4 13.3 93 1013.5 22.8 S 22.8 0.0 0.0
01:20 14.4 13.3 93 1013.5 22.1 S 22.8 0.0 0.0
01:21 14.4 13.3 93 1013.4 19.7 S 22.8 0.0 0.0
01:22 14.4 13.3 93 1013.3 16.8 S 22.8 0.0 0.0
01:23 14.4 13.3 93 1013.4 18.3 S 22.8 0.0 0.0
01:24 14.4 13.3 93 1013.3 15.2 S 22.8 0.0 0.0
01:25 14.4 13.3 93 1013.3 19.7 SE 22.8 0.0 0.0
01:26 14.4 13.3 93 1013.3 18.3 S 22.8 0.0 0.0
01:27 14.4 13.5 94 1013.3 14.5 S 22.8 0.0 0.0
01:28 14.4 13.5 94 1013.4 19.7 S 22.8 0.0 0.0
01:29 14.4 13.5 94 1013.3 19.7 SW 22.8 0.0 0.0
01:30 14.4 13.5 94 1013.4 18.3 S 22.1 0.0 0.0
01:31 14.4 13.5 94 1013.2 17.4 SW 22.1 0.0 0.0
01:32 14.4 13.5 94 1013.1 18.3 SSW 19.7 0.0 0.0
01:33 14.5 13.6 94 1013.1 19.0 S 19.7 0.0 0.0
01:34 14.4 13.5 94 1013.1 22.1 S 22.1 0.0 0.0
01:35 14.4 13.5 94 1013.2 16.8 S 22.1 0.0 0.0
01:36 14.4 13.5 94 1013.2 11.4 S 22.1 0.0 0.0
01:37 14.5 13.6 94 1013.2 22.1 S 22.1 0.0 0.0
01:38 14.4 13.5 94 1013.1 19.0 S 22.1 0.0 0.0
01:39 14.4 13.5 94 1013.1 20.6 S 22.1 0.0 0.0
01:41 14.5 13.6 94 1013.2 12.1 SE 22.1 0.0 0.0
01:42 14.5 13.6 94 1013.2 22.1 S 22.1 0.0 0.0
01:43 14.5 13.6 94 1013.1 15.9 SE 22.1 0.0 0.0
01:44 14.5 13.6 94 1013.1 15.2 SSW 22.1 0.0 0.0
01:45 14.5 13.6 94 1013.1 15.2 SSW 22.1 0.0 0.0
01:46 14.5 13.6 94 1013.1 16.8 SE 22.1 0.0 0.0
01:47 14.5 13.6 94 1013.0 22.1 WSW 22.1 0.0 0.0
01:48 14.5 13.6 94 1013.1 17.4 S 22.1 0.0 0.0
01:49 14.5 13.6 94 1013.0 15.9 S 22.1 0.0 0.0
01:50 14.5 13.6 94 1013.1 15.9 S 22.1 0.0 0.0
01:51 14.5 13.6 94 1013.0 13.6 SSW 22.1 0.0 0.0
01:52 14.5 13.6 94 1013.0 17.4 S 22.1 0.0 0.0
01:53 14.5 13.6 94 1012.9 16.8 SE 22.1 0.0 0.0
01:54 14.5 13.6 94 1013.0 16.8 S 22.1 0.0 0.0
01:55 14.4 13.5 94 1013.0 18.3 SW 22.1 0.0 0.0
01:56 14.5 13.6 94 1012.9 13.0 SW 22.1 0.0 0.0
01:57 14.5 13.7 95 1012.9 16.8 SW 19.7 0.0 0.0
01:59 14.5 13.6 94 1012.8 16.8 SE 19.7 0.0 0.0
02:01 14.5 13.7 95 1012.8 18.3 SE 19.7 0.0 0.0
02:02 14.5 13.7 95 1012.8 18.3 SE 19.7 0.0 0.0
02:03 14.5 13.7 95 1012.7 18.3 SE 19.7 0.0 0.0
02:04 14.5 13.7 95 1012.7 18.3 SE 19.7 0.0 0.0
02:05 14.5 13.7 95 1012.8 19.7 S 19.7 0.0 0.0
02:06 14.5 13.7 95 1012.8 19.7 S 19.7 0.0 0.0
02:07 14.5 13.7 95 1012.8 18.3 SE 19.7 0.0 0.0
02:08 14.4 13.6 95 1012.8 15.9 S 19.7 0.0 0.0
02:09 14.5 13.7 95 1012.7 16.8 SE 19.7 0.0 0.0
02:10 14.4 13.6 95 1012.8 16.8 S 19.7 0.0 0.0
02:11 14.4 13.6 95 1012.7 17.4 S 19.7 0.0 0.0
02:12 14.4 13.6 95 1012.6 22.1 SW 22.1 0.0 0.0
02:13 14.4 13.6 95 1012.6 16.8 S 22.1 0.0 0.0
02:14 14.4 13.6 95 1012.6 15.9 S 22.1 0.0 0.0
02:15 14.4 13.6 95 1012.7 15.9 SW 22.1 0.0 0.0
02:16 14.5 13.7 95 1012.7 18.3 S 22.1 0.0 0.0
02:17 14.4 13.6 95 1012.8 13.0 SSW 22.1 0.0 0.0
02:18 14.4 13.6 95 1012.7 19.0 SW 22.1 0.0 0.0
02:20 14.4 13.6 95 1012.7 18.3 S 22.1 0.0 0.0
02:21 14.4 13.6 95 1012.7 18.3 S 22.1 0.0 0.0
02:22 14.4 13.6 95 1012.7 14.5 SW 20.6 0.0 0.0
02:23 14.4 13.6 95 1012.6 15.9 S 20.6 0.0 0.0
02:24 14.4 13.6 95 1012.7 20.6 S 20.6 0.0 0.0
02:25 14.4 13.6 95 1012.7 20.6 S 20.6 0.0 0.0
02:26 14.4 13.8 96 1012.6 15.9 SW 20.6 0.0 0.0
02:27 14.4 13.8 96 1012.7 20.6 S 20.6 0.0 0.0
02:28 14.4 13.8 96 1012.6 22.1 SW 22.1 0.0 0.0
02:29 14.4 13.8 96 1012.6 19.7 S 22.1 0.0 0.0
02:30 14.4 13.8 96 1012.6 21.3 S 22.1 0.0 0.0
02:31 14.4 13.8 96 1012.5 15.9 S 22.1 0.0 0.0
02:32 14.4 13.8 96 1012.4 13.0 SW 22.1 0.0 0.0
02:33 14.4 13.8 96 1012.5 13.6 S 22.1 0.0 0.0
02:34 14.4 13.8 96 1012.5 15.2 S 22.1 0.0 0.0
02:35 14.4 13.8 96 1012.5 22.1 SW 22.1 0.0 0.0
02:36 14.4 13.8 96 1012.3 15.9 WSW 22.1 0.0 0.0
02:37 14.4 13.9 97 1012.3 15.9 S 22.1 0.0 0.0
02:39 14.4 13.9 97 1012.3 15.9 SW 22.1 0.0 0.0
02:41 14.4 13.9 97 1012.3 18.3 S 22.1 0.0 0.0
02:42 14.4 13.9 97 1012.2 18.3 S 22.1 0.0 0.0
02:43 14.4 13.9 97 1012.2 20.6 S 22.1 0.0 0.0
02:44 14.4 13.9 97 1012.1 16.8 S 22.1 0.0 0.0
02:45 14.4 13.9 97 1012.3 22.1 WSW 22.1 0.0 0.0
02:46 14.4 13.9 97 1012.3 16.8 SW 22.1 0.0 0.0
02:47 14.4 13.9 97 1012.4 23.5 SW 23.5 0.0 0.0
02:48 14.4 13.9 97 1012.4 20.6 S 23.5 0.0 0.0
02:49 14.4 14.1 98 1012.4 16.8 SW 23.5 0.0 0.0
02:50 14.4 14.1 98 1012.3 20.6 SE 23.5 0.0 0.0
02:51 14.5 14.2 98 1012.3 15.2 S 23.5 0.0 0.0
02:52 14.4 14.1 98 1012.3 18.3 S 23.5 0.0 0.0
02:53 14.4 14.1 98 1012.3 19.0 SE 23.5 0.0 0.0
02:54 14.4 14.1 98 1012.3 17.4 S 23.5 0.0 0.0
02:55 14.5 14.2 98 1012.3 13.0 SW 23.5 0.0 0.0
02:56 14.4 14.1 98 1012.2 13.6 SE 23.5 0.0 0.0
02:57 14.4 14.1 98 1012.1 19.0 S 22.1 0.0 0.0
02:58 14.4 14.1 98 1012.2 19.7 SW 22.1 0.0 0.0
02:59 14.4 14.1 98 1012.2 17.4 S 22.1 0.0 0.0
03:01 14.4 14.3 99 1012.1 15.9 SW 19.7 0.0 0.0
03:02 14.4 14.1 98 1012.2 17.4 S 19.7 0.0 0.0
03:03 14.4 14.3 99 1012.3 16.8 S 19.7 0.0 0.0
03:04 14.5 14.4 99 1012.3 22.1 N 22.1 0.0 0.0
03:05 14.4 14.3 99 1012.2 17.4 S 22.1 0.0 0.0
03:06 14.4 14.3 99 1012.0 19.0 SW 22.1 0.0 0.0
03:07 14.4 14.3 99 1012.0 19.0 S 22.1 0.0 0.0
03:08 14.4 14.3 99 1012.0 19.7 S 22.1 0.0 0.0
03:09 14.4 14.3 99 1012.1 15.9 S 22.1 0.0 0.0
03:10 14.5 14.4 99 1012.1 15.9 SW 22.1 0.0 0.0
03:11 14.4 14.3 99 1012.1 18.3 S 22.1 0.0 0.0
03:12 14.5 14.4 99 1012.1 21.3 S 22.1 0.0 0.0
03:13 14.5 14.4 99 1011.9 16.8 SW 22.1 0.0 0.0
03:14 14.5 14.4 99 1012.0 19.7 SE 21.3 0.0 0.0
03:15 14.5 14.4 99 1012.0 15.9 S 21.3 0.0 0.0
03:16 14.5 14.4 99 1012.0 21.3 S 21.3 0.0 0.0
03:17 14.5 14.4 99 1012.1 20.6 S 21.3 0.0 0.0
03:18 14.5 14.4 99 1011.9 15.9 S 21.3 0.0 0.0
03:20 14.5 14.4 99 1011.9 24.4 S 24.4 0.0 0.0
03:21 14.5 14.4 99 1011.9 22.1 S 24.4 0.0 0.0
03:22 14.5 14.4 99 1011.8 17.4 S 24.4 0.0 0.0
03:23 14.5 14.4 99 1012.0 16.8 S 24.4 0.0 0.0
03:24 14.5 14.4 99 1011.8 20.6 S 24.4 0.0 0.0
03:25 14.5 14.4 99 1011.8 15.9 S 24.4 0.0 0.0
03:26 14.5 14.4 99 1011.9 16.8 S 24.4 0.0 0.0
03:27 14.5 14.4 99 1011.8 15.2 S 24.4 0.0 0.0
03:28 14.5 14.4 99 1011.8 17.4 S 24.4 0.0 0.0
03:29 14.5 14.4 99 1011.6 18.3 SE 24.4 0.0 0.0
03:30 14.5 14.4 99 1011.6 20.6 S 24.4 0.0 0.0
03:31 14.5 14.4 99 1011.8 17.4 S 23.5 0.0 0.0
03:32 14.5 14.4 99 1011.6 20.6 SE 23.5 0.0 0.0
03:33 14.6 14.5 99 1011.8 22.1 SW 23.5 0.0 0.0
03:34 14.6 14.5 99 1011.6 17.4 SW 23.5 0.0 0.0
03:35 14.6 14.5 99 1011.7 19.0 S 23.5 0.0 0.0
03:36 14.6 14.5 99 1011.7 22.8 SW 23.5 0.0 0.0
03:37 14.6 14.5 99 1011.7 21.3 SE 23.5 0.0 0.0
03:38 14.6 14.5 99 1011.7 20.6 S 23.5 0.0 0.0
03:40 14.6 14.5 99 1011.6 18.3 SW 22.8 0.0 0.0
03:41 14.6 14.5 99 1011.6 19.0 SW 22.8 0.0 0.0
03:42 14.6 14.5 99 1011.6 22.1 SW 22.8 0.0 0.0
03:43 14.6 14.5 99 1011.7 15.2 S 22.8 0.0 0.0
03:44 14.6 14.5 99 1011.7 15.2 S 22.8 0.0 0.0
03:45 14.6 14.5 99 1011.6 17.4 S 22.8 0.0 0.0
03:46 14.6 14.5 99 1011.6 20.6 SSW 22.8 0.0 0.0
03:47 14.6 14.5 99 1011.6 21.3 SSW 22.1 0.0 0.0
03:48 14.6 14.5 99 1011.6 17.4 SE 22.1 0.0 0.0
03:49 14.6 14.5 99 1011.5 18.3 SW 22.1 0.0 0.0
03:50 14.6 14.5 99 1011.5 20.6 SSW 22.1 0.0 0.0
03:51 14.6 14.5 99 1011.6 20.6 SE 22.1 0.0 0.0
03:52 14.6 14.5 99 1011.5 19.7 S 22.1 0.0 0.0
03:53 14.6 14.5 99 1011.6 18.3 S 21.3 0.0 0.0
03:54 14.6 14.5 99 1011.5 13.0 SW 21.3 0.0 0.0
03:55 14.6 14.5 99 1011.6 19.0 S 21.3 0.0 0.0
03:56 14.5 14.4 99 1011.5 16.8 S 21.3 0.0 0.0
03:57 14.6 14.5 99 1011.5 19.0 SSW 21.3 0.0 0.0
03:58 14.6 14.5 99 1011.4 19.7 S 20.6 0.0 0.0
03:59 14.6 14.5 99 1011.3 18.3 SE 20.6 0.0 0.1
04:00 14.6 14.5 99 1011.3 21.3 S 21.3 0.8 0.1
04:01 14.6 14.5 99 1011.4 21.3 S 21.3 0.8 0.1
04:02 14.6 14.5 99 1011.4 19.7 S 21.3 1.5 0.1
04:03 14.6 14.5 99 1011.4 13.0 S 21.3 1.5 0.1
04:04 14.6 14.5 99 1011.4 19.7 S 21.3 1.5 0.1
04:05 14.7 14.6 99 1011.3 20.6 SSW 21.3 0.8 0.1
04:06 14.7 14.6 99 1011.2 18.3 S 21.3 0.8 0.1
04:07 14.7 14.6 99 1011.4 19.7 S 21.3 0.0 0.1
04:09 14.7 14.6 99 1011.3 15.9 S 21.3 0.0 0.1
04:10 14.7 14.6 99 1011.1 20.6 S 21.3 0.0 0.1
04:11 14.7 14.6 99 1011.3 16.8 SW 21.3 0.0 0.1
04:12 14.7 14.6 99 1011.4 16.8 S 20.6 0.0 0.1
04:13 14.6 14.5 99 1011.3 18.3 S 20.6 0.0 0.1
04:14 14.7 14.6 99 1011.2 17.4 SW 20.6 0.0 0.1
04:15 14.7 14.6 99 1011.3 20.6 SW 20.6 0.0 0.1
04:16 14.7 14.6 99 1011.4 15.2 SW 20.6 0.0 0.1
04:17 14.7 14.6 99 1011.3 13.0 SW 20.6 0.0 0.1
04:18 14.7 14.6 99 1011.2 20.6 SW 20.6 0.0 0.1
04:19 14.7 14.6 99 1011.3 22.1 SW 22.1 0.0 0.1
04:20 14.7 14.6 99 1011.3 19.7 NNE 22.1 0.0 0.1
04:21 14.7 14.6 99 1011.1 20.6 S 22.1 0.0 0.1
04:22 14.7 14.6 99 1011.3 20.6 SW 22.1 0.0 0.1
04:23 14.7 14.6 99 1011.2 15.2 SE 22.1 0.0 0.1
04:24 14.7 14.6 99 1011.3 17.4 SE 22.8 0.0 0.1
04:25 14.8 14.7 99 1011.2 16.8 SSW 22.8 0.0 0.1
04:27 14.7 14.6 99 1011.4 15.9 S 22.8 0.0 0.1
04:28 14.8 14.7 99 1011.3 16.8 S 22.8 0.0 0.1
04:29 14.8 14.7 99 1011.3 16.8 S 22.8 0.0 0.1
04:30 14.8 14.7 99 1011.2 14.5 S 22.8 0.0 0.1
04:31 14.8 14.7 99 1011.3 15.9 S 22.8 0.0 0.1
04:32 14.8 14.7 99 1011.3 18.3 SW 22.8 0.0 0.1
04:33 14.8 14.7 99 1011.2 22.1 SW 22.8 0.0 0.1
04:34 14.8 14.7 99 1011.3 18.3 S 22.8 0.0 0.1
04:35 14.8 14.7 99 1011.3 19.7 S 22.1 0.0 0.1
04:36 14.8 14.7 99 1011.3 21.3 SW 22.1 0.0 0.1
04:37 14.8 14.7 99 1011.3 14.5 SW 22.1 0.0 0.1
04:38 14.8 14.7 99 1011.3 18.3 SW 22.1 0.0 0.1
04:39 14.9 14.8 99 1011.2 19.7 S 22.1 0.0 0.1
04:40 14.8 14.7 99 1011.3 22.1 S 22.1 0.0 0.1
04:42 14.8 14.7 99 1011.2 22.1 S 22.1 0.0 0.1
04:43 14.8 14.7 99 1011.1 15.2 S 22.1 0.0 0.1
04:44 14.9 14.8 99 1011.2 15.2 SSW 22.1 0.0 0.1
04:45 14.8 14.7 99 1011.3 23.5 NNE 23.5 0.0 0.1
04:46 14.9 14.8 99 1011.2 14.5 N 23.5 0.0 0.1
04:47 14.9 14.8 99 1011.2 25.9 S 25.9 0.0 0.1
04:48 14.9 14.8 99 1011.2 15.2 S 25.9 0.0 0.1
04:49 14.9 14.8 99 1011.2 20.6 S 25.9 0.0 0.1
04:50 14.9 14.8 99 1011.2 19.0 SSW 25.9 0.0 0.1
04:51 14.9 14.8 99 1011.1 21.3 S 25.9 0.0 0.1
04:52 14.9 14.8 99 1011.3 22.1 SW 25.9 0.0 0.1
04:53 14.9 14.8 99 1011.3 23.5 SW 25.9 0.0 0.1
04:54 14.9 14.8 99 1011.1 16.8 SE 25.9 0.0 0.1
04:56 14.9 14.8 99 1011.1 24.4 S 25.9 0.0 0.1
04:57 14.9 14.8 99 1011.1 13.6 S 24.4 0.0 0.1
04:58 14.9 14.8 99 1011.1 13.6 S 24.4 0.0 0.1
04:59 14.9 14.8 99 1011.3 24.4 SW 24.4 0.0 0.1
05:00 14.9 14.8 99 1011.0 22.8 S 24.4 0.0 0.1
05:01 14.9 14.8 99 1011.3 22.8 S 24.4 0.0 0.1
05:02 15.0 14.9 99 1011.2 19.0 S 24.4 0.0 0.1
05:03 15.0 14.9 99 1011.1 23.5 S 24.4 0.0 0.1
05:04 15.0 14.9 99 1011.2 22.8 S 24.4 0.0 0.1
05:05 15.0 14.9 99 1011.1 19.0 S 24.4 0.0 0.1
05:06 15.0 14.9 99 1011.2 19.0 SW 24.4 0.0 0.1
05:07 15.0 14.9 99 1011.1 17.4 S 24.4 0.0 0.1
05:08 15.0 14.9 99 1011.1 15.9 S 24.4 0.0 0.1
05:09 15.0 14.9 99 1011.1 15.2 SW 23.5 0.0 0.1
05:10 15.0 14.9 99 1011.2 15.9 SW 23.5 0.0 0.1
05:11 15.0 14.9 99 1011.1 19.0 SE 23.5 0.0 0.1
05:13 15.0 14.9 99 1011.1 20.6 S 22.8 0.0 0.1
05:14 15.0 14.9 99 1011.0 19.0 SW 20.6 0.0 0.1
05:15 15.0 14.9 99 1011.1 18.3 SW 20.6 0.0 0.1
05:16 15.0 14.9 99 1011.0 15.9 SW 20.6 0.0 0.1
05:17 15.0 14.9 99 1011.0 19.0 NNE 20.6 0.0 0.1
05:18 15.0 14.9 99 1011.1 20.6 S 20.6 0.0 0.1
05:19 15.0 14.9 99 1011.0 22.1 S 22.1 0.0 0.1
05:20 15.0 14.9 99 1011.3 22.8 SW 22.8 0.0 0.1
05:21 15.0 14.9 99 1011.0 18.3 S 22.8 0.0 0.1
05:22 15.0 14.9 99 1011.2 19.0 S 22.8 0.0 0.1
05:23 15.1 15.0 99 1011.3 16.8 NW 22.8 0.0 0.1
05:24 15.1 15.0 99 1011.0 16.8 S 22.8 0.0 0.1
05:25 15.1 15.0 99 1011.0 14.5 S 22.8 0.0 0.1
05:26 15.1 15.0 99 1011.1 17.4 S 22.8 0.0 0.1
05:28 15.1 15.0 99 1011.1 17.4 S 22.8 0.0 0.1
05:29 15.1 15.0 99 1011.1 14.5 S 22.8 0.0 0.1
05:30 15.1 15.0 99 1011.0 15.2 S 22.8 0.0 0.1
05:31 15.1 15.0 99 1011.2 16.8 S 22.1 0.0 0.1
05:32 15.1 15.0 99 1011.1 18.3 N 22.1 0.0 0.1
05:33 15.1 15.0 99 1011.1 14.5 SW 22.1 0.0 0.1
05:34 15.1 15.0 99 1011.0 17.4 S 22.1 0.0 0.1
05:35 15.1 15.0 99 1011.1 17.4 SSE 22.1 0.0 0.1
05:36 15.1 15.0 99 1011.0 18.3 S 22.1 0.0 0.1
05:37 15.1 15.0 99 1011.0 17.4 SW 22.1 0.0 0.1
05:38 15.1 15.0 99 1010.9 19.7 SW 20.6 0.0 0.1
05:39 15.1 15.0 99 1011.0 20.6 SW 20.6 0.0 0.1
05:40 15.1 15.0 99 1010.9 20.6 S 20.6 0.0 0.1
05:41 15.1 15.0 99 1010.9 17.4 SW 20.6 0.0 0.1
05:43 15.1 15.0 99 1011.0 14.5 S 20.6 0.0 0.1
05:44 15.1 15.0 99 1011.0 14.5 S 20.6 0.0 0.1
05:45 15.1 15.0 99 1011.0 16.8 S 20.6 0.0 0.1
05:46 15.1 15.0 99 1011.1 19.0 S 20.6 0.0 0.1
05:47 15.2 15.1 99 1011.0 17.4 SW 20.6 0.0 0.1
05:48 15.2 15.1 99 1011.1 16.8 SE 20.6 0.0 0.1
05:49 15.2 15.1 99 1010.9 17.4 SW 20.6 0.0 0.1
05:50 15.2 15.1 99 1011.0 15.9 SW 20.6 0.0 0.1
05:51 15.2 15.1 99 1010.9 13.0 S 19.0 0.0 0.1
05:52 15.2 15.1 99 1011.0 16.8 S 19.0 0.0 0.1
05:53 15.2 15.1 99 1011.0 15.9 S 19.0 0.0 0.1
05:54 15.2 15.1 99 1011.1 16.8 SE 19.0 0.0 0.1
05:55 15.2 15.1 99 1011.0 15.9 SW 19.0 0.0 0.1
05:57 15.2 15.1 99 1011.0 17.4 S 17.4 0.0 0.1
05:58 15.2 15.1 99 1011.0 17.4 S 17.4 0.0 0.1
05:59 15.2 15.1 99 1011.0 20.6 S 20.6 0.0 0.1
06:00 15.2 15.1 99 1010.9 15.2 SW 20.6 0.0 0.1
06:01 15.2 15.1 99 1010.8 15.2 SW 20.6 0.0 0.1
06:02 15.2 15.1 99 1010.8 9.8 SW 20.6 0.0 0.1
06:03 15.2 15.1 99 1010.9 17.4 S 20.6 0.0 0.1
06:04 15.2 15.1 99 1010.8 19.7 S 20.6 0.0 0.1
06:05 15.3 15.2 99 1011.1 20.6 SW 20.6 0.0 0.1
06:06 15.2 15.1 99 1010.9 14.5 SW 20.6 0.0 0.1
06:07 15.3 15.2 99 1010.9 20.6 SW 20.6 0.0 0.1
06:08 15.3 15.2 99 1010.9 20.6 SW 20.6 0.0 0.1
06:09 15.3 15.2 99 1010.8 22.8 SW 22.8 0.0 0.1
06:11 15.3 15.2 99 1011.0 18.3 SW 22.8 0.0 0.1
06:12 15.3 15.2 99 1011.0 14.5 S 22.8 0.0 0.1
06:13 15.3 15.2 99 1011.0 14.5 S 22.8 0.0 0.1
06:14 15.3 15.2 99 1010.8 13.0 SW 22.8 0.0 0.1
06:15 15.3 15.2 99 1010.8 15.2 SW 22.8 0.0 0.1
06:16 15.3 15.2 99 1010.8 16.8 NW 22.8 0.0 0.1
06:17 15.3 15.2 99 1010.9 14.5 S 22.8 0.0 0.1
06:18 15.3 15.2 99 1010.9 17.4 S 22.8 0.0 0.1
06:19 15.3 15.2 99 1010.8 15.2 SW 22.8 0.0 0.1
06:20 15.3 15.2 99 1010.8 18.3 S 18.3 0.0 0.1
06:21 15.3 15.2 99 1010.8 20.6 SW 20.6 0.0 0.1
06:22 15.3 15.2 99 1010.9 17.4 S 20.6 0.0 0.1
06:23 15.3 15.2 99 1010.7 17.4 S 20.6 0.0 0.1
06:25 15.4 15.3 99 1010.8 14.5 SW 20.6 0.0 0.1
06:26 15.4 15.3 99 1010.9 15.9 SE 20.6 0.0 0.1
06:27 15.4 15.3 99 1010.9 16.8 S 20.6 0.0 0.1
06:28 15.4 15.3 99 1010.8 13.0 S 20.6 0.0 0.1
06:29 15.3 15.2 99 1010.8 18.3 SW 20.6 0.0 0.1
06:30 15.4 15.3 99 1010.8 11.4 WSW 20.6 0.0 0.1
06:31 15.4 15.3 99 1010.7 12.1 SW 20.6 0.0 0.1
06:32 15.4 15.3 99 1010.8 22.8 SW 22.8 0.0 0.1
06:33 15.4 15.3 99 1010.9 15.2 SW 22.8 0.0 0.1
06:34 15.4 15.3 99 1010.9 14.5 SW 22.8 0.0 0.1
06:35 15.4 15.3 99 1010.8 17.4 SW 22.8 0.0 0.1
06:36 15.4 15.3 99 1010.9 15.2 S 22.8 0.0 0.1
06:37 15.4 15.3 99 1011.0 16.8 S 22.8 0.0 0.1
06:38 15.4 15.3 99 1010.8 21.3 SW 22.8 0.0 0.1
06:40 15.3 15.2 99 1010.8 16.8 W 22.8 0.0 0.1
06:41 15.3 15.2 99 1010.8 16.8 W 22.8 0.0 0.1
06:42 15.3 15.2 99 1011.1 17.4 SW 21.3 0.0 0.1
06:43 15.3 15.2 99 1011.0 19.7 SW 21.3 0.0 0.1
06:44 15.2 15.1 99 1011.0 18.3 W 21.3 0.0 0.1
06:45 15.2 15.1 99 1011.0 16.8 NW 21.3 0.0 0.1
06:46 15.2 15.1 99 1011.1 22.1 SW 22.1 0.0 0.1
06:47 15.1 15.0 99 1011.1 16.8 SW 22.1 0.0 0.1
06:48 15.1 15.0 99 1011.0 12.1 SW 22.1 0.0 0.1
06:49 15.0 14.9 99 1011.2 11.4 SW 22.1 0.0 0.1
06:50 15.0 14.9 99 1011.0 11.4 SW 22.1 0.0 0.1
06:51 15.0 14.9 99 1011.2 22.1 SW 22.1 0.0 0.1
06:52 14.9 14.8 99 1011.0 13.6 SW 22.1 0.0 0.1
06:54 14.9 14.8 99 1011.0 15.2 SW 22.1 0.0 0.1
06:55 14.9 14.8 99 1011.0 14.5 S 22.1 0.0 0.1
06:56 14.9 14.8 99 1011.2 16.8 SW 22.1 0.0 0.1
06:57 14.9 14.8 99 1011.1 17.4 WSW 22.1 0.0 0.1
06:58 14.8 14.7 99 1011.1 15.2 SW 22.1 0.0 0.1
06:59 14.8 14.7 99 1011.2 13.0 S 22.1 0.0 0.1
07:00 14.8 14.7 99 1011.2 20.6 W 22.1 0.0 0.1
07:01 14.8 14.7 99 1011.3 20.6 W 22.1 0.0 0.1
07:02 14.8 14.7 99 1011.2 15.2 SW 20.6 0.0 0.1
07:03 14.8 14.7 99 1011.3 22.1 WSW 22.1 0.0 0.1
07:04 14.8 14.7 99 1011.3 13.6 S 22.1 0.0 0.1
07:05 14.8 14.7 99 1011.2 12.1 SW 22.1 0.0 0.1
07:06 14.8 14.7 99 1011.1 15.9 WNW 22.1 0.0 0.1
07:07 14.8 14.7 99 1011.2 13.6 WSW 22.1 0.0 0.1
07:08 14.8 14.7 99 1011.3 13.6 S 22.1 0.0 0.1
07:09 14.8 14.7 99 1011.3 13.6 SW 22.1 0.0 0.1
07:10 14.8 14.7 99 1011.2 13.6 SW 22.1 0.0 0.1
07:12 14.8 14.7 99 1011.2 19.7 WSW 22.1 0.0 0.1
07:13 14.8 14.7 99 1011.2 19.7 WSW 22.1 0.0 0.1
07:14 14.8 14.7 99 1011.3 13.6 SW 19.7 0.0 0.1
07:15 14.8 14.7 99 1011.1 19.0 WNW 19.7 0.0 0.1
07:16 14.8 14.7 99 1011.1 15.2 SW 19.7 0.0 0.1
07:17 14.8 14.7 99 1011.1 16.8 SW 19.7 0.0 0.1
07:18 14.8 14.7 99 1011.2 13.6 W 19.7 0.0 0.1
07:19 14.8 14.7 99 1011.2 13.6 SW 19.7 0.0 0.1
07:20 14.8 14.7 99 1011.2 8.3 SW 19.7 0.0 0.1
07:21 14.8 14.7 99 1011.2 11.4 W 19.7 0.0 0.1
07:22 14.8 14.7 99 1011.2 15.2 W 19.7 0.0 0.1
07:23 14.8 14.7 99 1011.3 14.5 SW 19.0 0.0 0.1
07:24 14.9 14.8 99 1011.3 13.0 SW 19.0 0.0 0.1
07:26 14.8 14.7 99 1011.3 19.0 W 19.0 0.0 0.1
07:27 14.8 14.7 99 1011.5 13.0 N 19.0 0.0 0.1
07:28 14.8 14.7 99 1011.5 14.5 SW 19.0 0.0 0.1
07:29 14.8 14.7 99 1011.4 15.9 NW 19.0 0.0 0.1
07:30 14.7 14.6 99 1011.5 16.8 SW 19.0 0.0 0.1
07:31 14.7 14.6 99 1011.3 14.5 W 19.0 0.0 0.1
07:32 14.7 14.6 99 1011.4 16.8 WSW 19.0 0.0 0.1
07:33 14.6 14.5 99 1011.4 18.3 SW 19.0 0.0 0.1
07:34 14.6 14.5 99 1011.5 13.0 N 19.0 0.0 0.1
07:35 14.5 14.4 99 1011.6 12.1 NW 19.0 0.0 0.1
07:36 14.5 14.4 99 1011.5 13.6 NNW 18.3 0.0 0.1
07:37 14.4 14.3 99 1011.6 13.0 W 18.3 0.0 0.1
07:38 14.4 14.3 99 1011.7 9.8 NW 18.3 0.0 0.1
07:40 14.4 14.3 99 1011.5 20.6 SW 20.6 0.0 0.2
07:41 14.4 14.3 99 1011.7 15.2 NW 20.6 0.8 0.2
07:42 14.3 14.2 99 1011.5 18.3 SW 20.6 0.8 0.2
07:43 14.3 14.2 99 1011.6 17.4 SW 20.6 0.8 0.2
07:44 14.3 14.2 99 1011.7 23.5 SW 23.5 0.8 0.2
07:45 14.2 14.1 99 1011.5 21.3 SW 23.5 0.8 0.2
07:46 14.2 14.1 99 1011.7 13.6 S 23.5 0.0 0.2
07:47 14.1 14.0 99 1011.8 13.0 SW 23.5 0.0 0.2
07:48 14.1 14.0 99 1011.9 13.6 N 23.5 0.0 0.2
07:49 14.1 14.0 99 1011.9 10.7 W 23.5 0.0 0.2
07:50 14.1 14.0 99 1011.8 13.0 SW 23.5 0.0 0.2
07:51 14.0 13.9 99 1011.9 13.0 NW 23.5 0.0 0.2
07:52 14.0 13.9 99 1011.8 15.2 W 23.5 0.0 0.2
07:53 14.0 13.9 99 1011.8 17.4 SW 23.5 0.0 0.2
07:55 14.0 13.9 99 1011.9 9.8 W 17.4 0.0 0.2
07:56 14.0 13.9 99 1011.9 15.2 S 17.4 0.0 0.2
07:57 14.0 13.9 99 1011.9 13.0 W 17.4 0.0 0.2
07:58 14.0 13.9 99 1012.0 21.3 SW 21.3 0.0 0.2
07:59 14.0 13.9 99 1012.0 15.9 NW 21.3 0.0 0.2
08:00 14.0 13.9 99 1011.8 11.4 NW 21.3 0.0 0.2
08:01 14.0 13.9 99 1012.0 11.4 NW 21.3 0.0 0.2
08:02 14.0 13.9 99 1011.9 12.1 SW 21.3 0.0 0.2
08:03 14.0 13.9 99 1011.9 12.1 SW 21.3 0.0 0.2
08:04 14.0 13.9 99 1012.0 10.7 SW 21.3 0.0 0.2
08:05 14.0 13.9 99 1012.1 13.0 SW 21.3 0.0 0.2
08:06 14.0 13.9 99 1012.1 13.6 SW 21.3 0.0 0.2
08:07 14.0 13.9 99 1012.1 12.1 SW 21.3 0.0 0.2
08:08 14.0 13.9 99 1012.0 15.9 SW 21.3 0.0 0.2
08:10 14.0 13.9 99 1012.0 12.1 ESE 16.8 0.0 0.2
08:11 14.0 13.9 99 1012.1 13.6 SW 16.8 0.0 0.2
08:12 14.0 13.9 99 1012.1 14.5 W 16.8 0.0 0.2
08:13 14.0 13.9 99 1012.1 16.8 W 16.8 0.0 0.2
08:14 14.0 13.9 99 1011.9 13.0 W 16.8 0.0 0.2
08:15 14.0 13.9 99 1012.0 13.0 WNW 16.8 0.0 0.2
08:16 14.0 13.9 99 1012.1 16.8 W 16.8 0.0 0.2
08:17 14.0 13.9 99 1012.1 11.4 NW 16.8 0.0 0.2
08:18 14.0 13.9 99 1012.1 10.7 SW 16.8 0.0 0.2
08:19 14.0 13.9 99 1012.3 9.2 SW 16.8 0.0 0.2
08:20 14.0 13.9 99 1012.2 13.0 W 16.8 0.0 0.2
08:21 14.0 13.9 99 1012.4 6.0 SW 16.8 0.0 0.2
08:22 14.0 13.9 99 1012.3 12.1 S 16.8 0.0 0.2
08:23 14.0 13.9 99 1012.4 12.1 S 16.8 0.0 0.2
08:24 14.0 13.9 99 1012.3 9.2 W 16.8 0.0 0.2
08:25 14.0 13.9 99 1012.4 10.7 W 16.8 0.0 0.2
08:26 14.0 13.9 99 1012.3 9.8 W 16.8 0.0 0.2
08:27 14.0 13.9 99 1012.4 9.8 SSW 15.2 0.0 0.2
08:28 14.0 13.9 99 1012.3 9.2 SW 15.2 0.0 0.2
08:29 14.0 13.9 99 1012.3 7.6 W 15.2 0.0 0.2
08:30 14.0 13.9 99 1012.3 10.7 W 15.2 0.0 0.2
08:31 14.1 14.0 99 1012.4 15.9 NW 15.9 0.0 0.2
08:32 14.1 14.0 99 1012.3 13.0 SW 15.9 0.0 0.2
08:33 14.0 13.9 99 1012.3 11.4 SW 15.9 0.0 0.2
08:34 14.1 14.0 99 1012.5 14.5 SW 15.9 0.0 0.2
08:35 14.0 13.9 99 1012.5 15.2 SSE 15.9 0.0 0.2
08:36 14.0 13.9 99 1012.5 12.1 N 15.9 0.0 0.2
08:37 14.1 14.0 99 1012.4 6.9 S 15.9 0.0 0.2
08:38 14.1 14.0 99 1012.4 9.2 SW 15.9 0.0 0.2
08:40 14.1 14.0 99 1012.5 10.7 WSW 17.4 0.0 0.2
08:41 14.1 14.0 99 1012.6 19.7 WSW 19.7 0.0 0.2
08:42 14.1 14.0 99 1012.4 15.9 SW 19.7 0.0 0.2
08:43 14.1 14.0 99 1012.7 15.2 NW 19.7 0.0 0.2
08:44 14.2 14.1 99 1012.6 15.9 WSW 19.7 0.0 0.2
08:45 14.2 14.1 99 1012.6 11.4 SW 19.7 0.0 0.2
08:46 14.1 14.0 99 1012.6 13.0 NW 19.7 0.0 0.2
08:47 14.2 14.1 99 1012.4 13.0 W 19.7 0.0 0.2
08:48 14.2 14.1 99 1012.6 15.9 SW 19.7 0.0 0.2
08:49 14.2 14.1 99 1012.5 11.4 WSW 19.7 0.0 0.2
08:50 14.2 14.1 99 1012.5 12.1 SW 19.7 0.0 0.2
08:51 14.1 14.0 99 1012.6 12.1 SW 19.7 0.0 0.2
08:52 14.2 14.1 99 1012.5 8.3 SW 15.9 0.0 0.2
08:53 14.2 14.1 99 1012.7 15.2 SW 15.9 0.0 0.2
08:55 14.2 14.1 99 1012.6 15.9 NW 15.9 0.0 0.2
08:56 14.2 14.1 99 1012.7 16.8 NW 17.4 0.0 0.2
08:57 14.2 14.1 99 1012.5 15.9 WSW 17.4 0.0 0.2
08:58 14.2 14.1 99 1012.6 15.9 SW 17.4 0.0 0.2
08:59 14.3 14.2 99 1012.6 14.5 SW 17.4 0.0 0.2
09:00 14.3 14.2 99 1012.5 15.9 W 17.4 0.0 0.2
09:01 14.3 14.2 99 1012.5 15.9 W 17.4 0.0 0.2
09:02 14.4 14.3 99 1012.6 14.5 W 17.4 0.0 0.2
09:03 14.4 14.3 99 1012.8 17.4 WSW 17.4 0.0 0.2
09:04 14.4 14.3 99 1012.8 16.8 SSW 17.4 0.0 0.2
09:05 14.4 14.3 99 1012.6 15.2 W 17.4 0.0 0.2
09:06 14.4 14.3 99 1012.8 15.2 S 17.4 0.0 0.2
09:07 14.4 14.3 99 1012.8 17.4 WNW 17.4 0.0 0.2
09:08 14.4 14.3 99 1012.7 15.9 N 17.4 0.0 0.2
09:09 14.4 14.3 99 1012.8 11.4 NW 17.4 0.0 0.2
09:10 14.4 14.3 99 1012.8 15.2 SW 17.4 0.0 0.2
09:11 14.4 14.3 99 1012.7 10.7 W 17.4 0.0 0.2
09:12 14.4 14.3 99 1012.8 10.7 SW 17.4 0.0 0.2
09:13 14.4 14.3 99 1012.8 11.4 W 17.4 0.0 0.2
09:15 14.4 14.3 99 1012.7 15.2 SW 17.4 0.0 0.2
09:16 14.4 14.3 99 1012.9 10.7 SW 17.4 0.0 0.2
09:17 14.4 14.3 99 1012.8 15.2 SW 17.4 0.0 0.2
09:18 14.4 14.3 99 1012.9 16.8 N 17.4 0.0 0.2
09:19 14.3 14.2 99 1012.8 13.0 SW 17.4 0.0 0.2
09:20 14.4 14.3 99 1012.8 12.1 SW 17.4 0.0 0.2
09:21 14.4 14.3 99 1012.8 14.5 SW 17.4 0.0 0.2
09:22 14.4 14.3 99 1012.9 11.4 NW 17.4 0.0 0.2
09:23 14.4 14.3 99 1012.8 12.1 WSW 17.4 0.0 0.2
09:24 14.4 14.3 99 1013.0 15.9 NW 16.8 0.0 0.2
09:25 14.4 14.3 99 1012.8 22.1 WSW 22.1 0.0 0.2
09:26 14.3 14.2 99 1012.9 15.2 WSW 22.1 0.0 0.2
09:27 14.3 14.2 99 1012.9 16.8 W 22.1 0.0 0.2
09:28 14.2 14.1 99 1012.9 15.9 SW 22.1 0.0 0.2
09:30 14.2 14.1 99 1013.0 12.1 WSW 22.1 0.0 0.2
09:31 14.2 14.1 99 1013.1 9.2 SW 22.1 0.0 0.2
09:32 14.2 14.1 99 1012.9 9.8 NW 22.1 0.0 0.2
09:33 14.2 14.1 99 1012.9 9.8 NW 22.1 0.0 0.2
09:34 14.2 14.1 99 1012.9 13.0 W 22.1 0.0 0.2
09:35 14.2 14.1 99 1012.9 12.1 W 16.8 0.0 0.2
09:36 14.3 14.2 99 1013.1 12.1 W 16.8 0.0 0.2
09:37 14.3 14.2 99 1012.9 15.9 SW 15.9 0.0 0.2
09:38 14.3 14.2 99 1013.1 10.7 NW 15.9 0.0 0.2
09:39 14.3 14.2 99 1013.2 11.4 S 15.9 0.0 0.2
09:40 14.4 14.3 99 1013.2 19.0 N 19.0 0.0 0.2
09:41 14.4 14.3 99 1013.1 19.7 W 19.7 0.0 0.2
09:42 14.4 14.3 99 1013.2 15.2 S 19.7 0.0 0.2
09:43 14.4 14.3 99 1013.2 13.0 WSW 19.7 0.0 0.2
09:45 14.5 14.4 99 1013.1 12.1 W 19.7 0.0 0.2
09:46 14.6 14.5 99 1013.3 19.0 SW 19.7 0.0 0.2
09:47 14.6 14.5 99 1013.0 19.0 WNW 19.7 0.0 0.2
09:48 14.6 14.5 99 1013.2 22.8 W 22.8 0.0 0.2
09:49 14.6 14.5 99 1013.2 19.7 W 22.8 0.0 0.2
09:50 14.6 14.5 99 1013.2 10.7 NW 22.8 0.0 0.2
09:51 14.6 14.5 99 1013.3 9.2 SW 22.8 0.0 0.2
09:52 14.6 14.5 99 1013.3 12.1 SW 22.8 0.0 0.2
09:53 14.6 14.5 99 1013.3 15.9 SW 22.8 0.0 0.2
09:54 14.6 14.5 99 1013.4 20.6 W 22.8 0.0 0.2
09:55 14.5 14.4 99 1013.4 16.8 SW 22.8 0.0 0.2
09:56 14.5 14.4 99 1013.3 12.1 NW 22.8 0.0 0.2
09:57 14.4 14.3 99 1013.5 15.2 SW 22.8 0.0 0.2
09:58 14.4 14.3 99 1013.4 15.9 W 22.8 0.0 0.2
09:59 14.3 14.2 99 1013.5 11.4 WNW 20.6 0.0 0.2
10:00 14.3 14.2 99 1013.4 15.2 SW 20.6 0.0 0.2
10:01 14.3 14.2 99 1013.5 15.2 SW 20.6 0.0 0.2
10:02 14.2 14.1 99 1013.4 10.7 NW 20.6 0.0 0.2
10:03 14.2 14.1 99 1013.5 14.5 SW 20.6 0.0 0.2
10:04 14.2 14.1 99 1013.5 12.1 SW 16.8 0.0 0.2
10:05 14.1 14.0 99 1013.3 11.4 NW 16.8 0.0 0.2
10:06 14.1 14.0 99 1013.4 15.2 NW 15.9 0.0 0.2
10:07 14.1 14.0 99 1013.4 15.2 NW 15.9 0.0 0.2
10:08 14.1 14.0 99 1013.6 13.0 W 15.2 0.0 0.2
10:09 14.2 14.1 99 1013.6 12.1 SW 15.2 0.0 0.2
10:10 14.2 14.1 99 1013.5 9.8 S 15.2 0.0 0.2
10:11 14.2 14.1 99 1013.5 10.7 WNW 15.2 0.0 0.2
10:12 14.2 14.1 99 1013.5 7.6 SW 15.2 0.0 0.2
10:13 14.3 14.2 99 1013.7 9.8 WNW 15.2 0.0 0.2
10:14 14.3 14.2 99 1013.6 13.0 W 15.2 0.0 0.2
10:15 14.4 14.3 99 1013.7 13.6 WNW 15.2 0.0 0.2
10:16 14.4 14.3 99 1013.6 10.7 NW 15.2 0.0 0.2
10:17 14.4 14.3 99 1013.7 12.1 SW 13.6 0.0 0.2
10:18 14.5 14.4 99 1013.7 10.7 NNE 14.5 0.0 0.2
10:19 14.6 14.5 99 1013.7 10.7 N 14.5 0.0 0.2
10:20 14.6 14.5 99 1013.7 9.2 NW 14.5 0.0 0.2
10:21 14.7 14.6 99 1013.6 13.0 NW 14.5 0.0 0.2
10:22 14.7 14.6 99 1013.5 12.1 N 14.5 0.0 0.2
10:23 14.8 14.7 99 1013.7 13.0 SW 14.5 0.0 0.2
10:24 14.9 14.8 99 1013.8 10.7 N 15.2 0.0 0.2
10:25 14.9 14.8 99 1013.6 9.2 SW 15.2 0.0 0.2
10:26 15.0 14.9 99 1013.8 12.1 SW 15.2 0.0 0.2
10:27 15.0 14.9 99 1013.8 10.7 W 15.2 0.0 0.2
10:28 15.0 14.9 99 1013.8 15.9 SW 17.4 0.0 0.2
10:29 15.0 14.7 98 1013.8 15.2 SW 19.0 0.0 0.2
10:30 15.0 14.7 98 1013.8 10.7 WSW 19.0 0.0 0.2
10:31 15.0 14.7 98 1013.8 13.6 N 19.0 0.0 0.2
10:32 15.0 14.7 98 1013.9 8.3 NNW 19.0 0.0 0.2
10:33 15.0 14.5 97 1013.8 13.6 W 19.0 0.0 0.2
10:34 15.0 14.5 97 1013.9 11.4 NW 19.0 0.0 0.2
10:35 15.0 14.5 97 1013.9 13.0 SW 19.0 0.0 0.2
10:36 15.0 14.4 96 1013.7 19.7 W 19.7 0.0 0.2
10:37 15.0 14.4 96 1013.9 10.7 S 19.7 0.0 0.2
10:38 15.0 14.4 96 1013.8 14.5 NW 19.7 0.0 0.2
10:39 15.0 14.4 96 1013.8 13.6 NW 19.7 0.0 0.2
10:40 15.0 14.2 95 1014.0 15.2 NW 19.7 0.0 0.2
10:41 14.9 14.1 95 1013.9 11.4 W 19.7 0.0 0.2
10:42 14.9 13.9 94 1013.9 15.2 SW 19.7 0.0 0.2
10:43 14.9 13.9 94 1014.0 13.6 SW 19.7 0.0 0.2
10:44 14.9 13.8 93 1013.9 13.6 W 19.7 0.0 0.2
10:45 14.9 13.6 92 1013.7 16.8 NW 19.7 0.0 0.2
10:46 14.9 13.6 92 1013.7 13.0 NW 16.8 0.0 0.2
10:47 14.9 13.6 92 1013.9 13.6 WNW 16.8 0.0 0.2
10:48 14.9 13.5 91 1013.8 16.8 SW 16.8 0.0 0.2
10:49 15.0 13.5 91 1013.8 12.1 W 16.8 0.0 0.2
10:50 15.0 13.5 91 1013.7 15.2 SW 16.8 0.0 0.2
10:51 15.0 13.4 90 1013.8 13.0 SW 16.8 0.0 0.2
10:52 15.0 13.4 90 1013.7 15.2 W 16.8 0.0 0.2
10:53 15.0 13.4 90 1013.8 13.6 W 16.8 0.0 0.2
10:54 15.0 13.4 90 1013.8 13.6 NW 16.8 0.0 0.2
10:55 15.0 13.2 89 1013.7 13.0 NW 16.8 0.0 0.2
10:56 15.0 13.2 89 1013.9 19.0 SSW 19.0 0.0 0.2
10:57 15.1 13.3 89 1013.8 16.8 NNW 19.0 0.0 0.2
10:58 15.1 13.1 88 1013.9 14.5 SW 19.0 0.0 0.2
10:59 15.1 13.1 88 1013.8 9.2 SW 19.0 0.0 0.2
11:00 15.1 13.1 88 1013.8 13.6 WSW 19.0 0.0 0.2
11:01 15.1 13.1 88 1014.1 9.2 NW 19.0 0.0 0.2
11:02 15.2 13.2 88 1013.9 12.1 W 19.0 0.0 0.2
11:03 15.2 13.2 88 1013.9 17.4 NW 19.0 0.0 0.2
11:04 15.2 13.2 88 1013.8 17.4 WNW 19.0 0.0 0.2
11:05 15.2 13.2 88 1013.9 14.5 W 19.0 0.0 0.2
11:06 15.2 13.1 87 1014.0 14.5 NW 17.4 0.0 0.2
11:07 15.2 13.2 88 1013.9 15.9 NW 17.4 0.0 0.2
11:08 15.2 13.2 88 1013.9 19.0 NW 19.0 0.0 0.2
11:09 15.2 13.2 88 1014.1 19.7 W 19.7 0.0 0.2
11:10 15.1 13.0 87 1013.9 17.4 W 19.7 0.0 0.2
11:11 15.1 13.0 87 1013.9 17.4 W 19.7 0.0 0.2
11:12 15.2 13.1 87 1014.1 9.2 W 19.7 0.0 0.2
11:13 15.2 13.1 87 1014.1 9.2 W 19.7 0.0 0.2
11:14 15.2 13.1 87 1013.9 9.8 NW 19.7 0.0 0.2
11:15 15.2 13.1 87 1014.2 10.7 SW 19.7 0.0 0.2
11:16 15.2 13.2 88 1014.0 13.6 SW 19.7 0.0 0.2
11:17 15.2 13.2 88 1014.2 15.9 W 19.7 0.0 0.2
11:18 15.3 13.3 88 1014.2 9.8 S 19.7 0.0 0.2
11:19 15.3 13.3 88 1014.3 10.7 W 19.7 0.0 0.2
11:20 15.3 13.3 88 1014.2 9.2 SW 17.4 0.0 0.2
11:21 15.3 13.3 88 1014.3 12.1 SW 15.9 0.0 0.2
11:22 15.3 13.3 88 1014.3 15.9 SW 15.9 0.0 0.2
11:23 15.3 13.3 88 1014.3 15.9 W 15.9 0.0 0.2
11:24 15.3 13.3 88 1014.5 15.9 NW 15.9 0.0 0.2
11:25 15.4 13.4 88 1014.3 15.9 WSW 15.9 0.0 0.2
11:26 15.4 13.3 87 1014.3 16.8 W 16.8 0.0 0.2
11:27 15.4 13.3 87 1014.4 9.8 SW 16.8 0.0 0.2
11:28 15.4 13.3 87 1014.3 13.6 SW 16.8 0.0 0.2
11:29 15.5 13.4 87 1014.5 9.8 W 16.8 0.0 0.2
11:30 15.5 13.4 87 1014.5 10.7 SW 16.8 0.0 0.2
11:31 15.5 13.4 87 1014.5 6.9 WNW 16.8 0.0 0.2
11:33 15.5 13.5 88 1014.7 12.1 NW 16.8 0.0 0.2
11:34 15.6 13.5 87 1014.6 15.2 SW 16.8 0.0 0.2
11:35 15.6 13.5 87 1014.7 14.5 NW 16.8 0.0 0.2
11:36 15.5 13.4 87 1014.8 11.4 NW 15.2 0.0 0.2
11:37 15.5 13.4 87 1014.7 10.7 W 15.2 0.0 0.2
11:38 15.5 13.4 87 1014.8 14.5 WNW 15.2 0.0 0.2
11:39 15.4 13.3 87 1014.8 10.7 NW 15.2 0.0 0.2
11:40 15.4 13.3 87 1014.8 10.7 NW 15.2 0.0 0.2
11:41 15.4 13.3 87 1014.8 10.7 NW 15.2 0.0 0.2
11:42 15.4 13.3 87 1014.9 15.2 NW 15.2 0.0 0.2
11:43 15.3 13.2 87 1014.8 14.5 NW 15.2 0.0 0.2
11:44 15.3 13.0 86 1014.6 13.0 W 15.2 0.0 0.2
11:45 15.2 12.9 86 1014.9 12.1 W 15.2 0.0 0.2
11:46 15.2 12.9 86 1014.8 7.6 NW 15.2 0.0 0.2
11:47 15.2 12.9 86 1014.9 10.7 NW 15.2 0.0 0.2
11:48 15.2 13.1 87 1014.9 6.0 W 15.2 0.0 0.2
11:49 15.2 13.1 87 1015.0 13.0 SW 15.2 0.0 0.2
11:50 15.2 13.1 87 1014.9 13.0 NW 15.2 0.0 0.2
11:51 15.2 13.1 87 1014.9 14.5 NW 15.2 0.0 0.2
11:52 15.2 12.9 86 1015.0 12.1 W 14.5 0.0 0.2
11:53 15.3 13.2 87 1015.1 12.1 NW 14.5 0.0 0.2
11:54 15.3 13.2 87 1015.1 12.1 NW 14.5 0.0 0.2
11:55 15.2 13.1 87 1015.2 11.4 SW 14.5 0.0 0.2
11:56 15.3 13.2 87 1015.1 7.6 NW 14.5 0.0 0.2
11:57 15.3 13.2 87 1015.0 9.2 WSW 14.5 0.0 0.2
11:58 15.3 13.0 86 1014.9 14.5 SW 14.5 0.0 0.2
11:59 15.4 13.1 86 1015.1 12.1 SW 14.5 0.0 0.2
12:00 15.4 13.1 86 1015.1 11.4 W 14.5 0.0 0.2
12:01 15.4 13.1 86 1015.1 11.4 W 14.5 0.0 0.2
12:02 15.5 13.2 86 1015.1 11.4 NW 14.5 0.0 0.2
12:03 15.5 13.2 86 1015.4 12.1 NW 14.5 0.0 0.2
12:04 15.6 13.3 86 1015.1 11.4 N 14.5 0.0 0.2
12:05 15.6 13.1 85 1015.1 10.7 N 14.5 0.0 0.2
12:06 15.6 13.1 85 1015.2 9.8 SW 14.5 0.0 0.2
12:07 15.6 13.1 85 1015.2 13.0 NW 14.5 0.0 0.2
12:08 15.6 13.1 85 1015.1 8.3 SW 13.0 0.0 0.2
12:09 15.6 13.1 85 1015.0 15.2 W 15.2 0.0 0.2
12:10 15.6 13.1 85 1015.2 9.8 W 15.2 0.0 0.2
12:11 15.7 13.2 85 1015.2 9.8 NW 15.2 0.0 0.2
12:12 15.7 13.0 84 1015.1 5.4 W 15.2 0.0 0.2
12:13 15.7 13.0 84 1015.2 9.2 W 15.2 0.0 0.2
12:14 15.7 13.0 84 1015.1 9.8 W 15.2 0.0 0.2
12:15 15.7 13.0 84 1015.1 16.8 NW 16.8 0.0 0.2
12:16 15.7 12.8 83 1015.2 13.6 W 16.8 0.0 0.2
12:17 15.7 12.6 82 1015.1 12.1 N 16.8 0.0 0.2
12:18 15.7 12.6 82 1015.2 13.0 W 16.8 0.0 0.2
12:19 15.7 12.6 82 1015.1 12.1 NW 16.8 0.0 0.2
12:20 15.7 12.6 82 1015.2 7.6 NW 16.8 0.0 0.2
12:21 15.7 12.5 81 1015.3 7.6 SW 16.8 0.0 0.2
12:22 15.7 12.5 81 1015.2 13.0 NW 16.8 0.0 0.2
12:23 15.7 12.5 81 1015.2 13.0 NW 16.8 0.0 0.2
12:24 15.8 12.6 81 1015.3 7.6 W 16.8 0.0 0.2
12:25 15.9 12.7 81 1015.3 9.2 S 13.6 0.0 0.2
12:26 15.9 12.7 81 1015.3 11.4 W 13.6 0.0 0.2
12:27 16.0 12.7 81 1015.3 13.0 NW 13.0 0.0 0.2
12:28 15.9 12.7 81 1015.3 17.4 W 17.4 0.0 0.2
12:29 16.0 12.7 81 1015.3 11.4 WSW 17.4 0.0 0.2
12:30 16.0 12.7 81 1015.3 14.5 SW 17.4 0.0 0.2
12:31 15.9 12.7 81 1015.5 10.7 SW 17.4 0.0 0.2
12:32 15.9 12.7 81 1015.4 9.2 W 17.4 0.0 0.2
12:33 15.9 12.7 81 1015.4 9.2 SW 17.4 0.0 0.2
12:34 15.9 12.5 80 1015.4 13.0 SW 17.4 0.0 0.2
12:35 15.9 12.5 80 1015.5 11.4 SW 17.4 0.0 0.2
12:36 15.9 12.5 80 1015.3 9.2 SW 17.4 0.0 0.2
12:37 15.9 12.5 80 1015.4 12.1 SW 17.4 0.0 0.2
12:38 16.0 12.6 80 1015.2 12.1 NW 14.5 0.0 0.2
12:39 16.0 12.6 80 1015.2 12.1 NW 14.5 0.0 0.2
12:40 16.1 12.7 80 1015.4 12.1 W 13.6 0.0 0.2
12:41 16.2 12.8 80 1015.3 13.0 SW 13.6 0.0 0.2
12:42 16.2 12.6 79 1015.3 14.5 W 14.5 0.0 0.2
12:43 16.2 12.6 79 1015.4 9.8 WSW 14.5 0.0 0.2
12:44 16.3 12.7 79 1015.5 9.2 NNE 14.5 0.0 0.2
12:45 16.4 12.6 78 1015.5 14.5 E 14.5 0.0 0.2
12:46 16.5 12.7 78 1015.4 12.1 WSW 14.5 0.0 0.2
12:47 16.6 12.8 78 1015.4 15.9 SE 15.9 0.0 0.2
12:48 16.7 12.7 77 1015.5 11.4 W 15.9 0.0 0.2
12:49 16.7 12.5 76 1015.5 10.7 NW 19.7 0.0 0.2
12:50 16.7 12.5 76 1015.5 12.1 SW 19.7 0.0 0.2
12:51 16.7 12.5 76 1015.6 16.8 SW 19.7 0.0 0.2
12:52 16.7 12.5 76 1015.6 13.0 WNW 19.7 0.0 0.2
12:53 16.8 12.4 75 1015.4 14.5 W 19.7 0.0 0.2
12:54 16.8 12.4 75 1015.4 14.5 W 19.7 0.0 0.2
12:55 16.8 12.4 75 1015.5 15.2 SW 19.7 0.0 0.2
12:56 16.8 12.1 74 1015.5 14.5 SW 19.7 0.0 0.2
12:57 16.8 12.1 74 1015.6 12.1 SW 19.7 0.0 0.2
12:58 16.8 12.1 74 1015.5 11.4 WSW 19.7 0.0 0.2
12:59 16.8 12.1 74 1015.6 13.6 W 19.7 0.0 0.2
13:00 16.7 12.1 74 1015.4 9.8 W 17.4 0.0 0.2
13:01 16.7 12.1 74 1015.4 9.8 W 17.4 0.0 0.2
13:02 16.7 12.1 74 1015.5 11.4 N 17.4 0.0 0.2
13:03 16.9 12.7 76 1015.5 13.0 SW 17.4 0.0 0.2
13:04 17.0 12.5 75 1015.3 14.5 WSW 17.4 0.0 0.2
13:05 17.1 12.4 74 1015.5 13.6 NW 17.4 0.0 0.2
13:07 17.1 12.4 74 1015.5 15.9 SW 15.9 0.0 0.2
13:08 17.1 12.4 74 1015.4 11.4 NW 15.9 0.0 0.2
13:09 17.1 12.2 73 1015.4 13.0 WNW 15.9 0.0 0.2
13:10 17.1 12.2 73 1015.2 9.8 ENE 15.9 0.0 0.2
13:11 17.2 12.5 74 1015.5 9.2 W 15.9 0.0 0.2
13:12 17.3 12.2 72 1015.4 13.6 WNW 15.9 0.0 0.2
13:13 17.3 12.2 72 1015.5 12.1 W 15.9 0.0 0.2
13:14 17.3 12.2 72 1015.6 13.6 W 15.9 0.0 0.2
13:15 17.3 12.2 72 1015.6 13.6 W 15.9 0.0 0.2
13:16 17.3 12.2 72 1015.5 8.3 W 15.9 0.0 0.2
13:17 17.3 12.2 72 1015.4 15.9 W 15.9 0.0 0.2
13:18 17.3 12.2 72 1015.5 15.2 W 15.9 0.0 0.2
13:19 17.3 12.2 72 1015.5 13.0 NW 15.9 0.0 0.2
13:20 17.3 12.0 71 1015.5 13.0 W 15.9 0.0 0.2
13:21 17.3 12.0 71 1015.6 9.8 NW 15.9 0.0 0.2
13:22 17.4 12.3 72 1015.5 13.0 W 15.9 0.0 0.2
13:24 17.4 12.1 71 1015.4 15.2 SW 18.3 0.0 0.2
13:25 17.3 12.0 71 1015.5 19.0 SW 19.0 0.0 0.2
13:26 17.3 12.0 71 1015.6 14.5 NW 19.0 0.0 0.2
13:27 17.3 12.0 71 1015.7 14.5 NW 19.0 0.0 0.2
13:28 17.3 12.0 71 1015.5 18.3 SW 19.0 0.0 0.2
13:29 17.4 12.1 71 1015.5 16.8 SW 19.0 0.0 0.2
13:30 17.4 12.1 71 1015.7 13.0 SW 19.0 0.0 0.2
13:31 17.4 12.1 71 1015.4 13.0 SW 19.0 0.0 0.2
13:32 17.4 12.1 71 1015.5 13.0 W 19.0 0.0 0.2
13:33 17.5 12.0 70 1015.5 14.5 W 19.0 0.0 0.2
13:34 17.5 11.8 69 1015.6 14.5 SW 19.0 0.0 0.2
13:35 17.5 12.0 70 1015.5 7.6 SW 19.0 0.0 0.2
13:36 17.5 12.0 70 1015.7 13.6 SW 18.3 0.0 0.2
13:37 17.5 12.0 70 1015.6 19.0 SW 19.0 0.0 0.2
13:38 17.5 11.8 69 1015.7 19.0 NW 19.0 0.0 0.2
13:40 17.5 11.8 69 1015.6 17.4 SE 19.0 0.0 0.2
13:41 17.5 11.8 69 1015.7 11.4 S 19.0 0.0 0.2
13:42 17.6 12.1 70 1015.8 13.6 WSW 19.0 0.0 0.2
13:43 17.6 11.9 69 1015.7 14.5 WNW 19.0 0.0 0.2
13:44 17.6 11.6 68 1015.8 13.6 SW 19.0 0.0 0.2
13:45 17.6 11.9 69 1015.7 14.5 NW 19.0 0.0 0.2
13:46 17.6 11.9 69 1015.8 14.5 SW 19.0 0.0 0.2
13:47 17.7 11.9 69 1015.8 13.6 SW 19.0 0.0 0.2
13:48 17.7 11.9 69 1015.8 14.5 SW 17.4 0.0 0.2
13:49 17.7 12.4 71 1015.9 12.1 SW 17.4 0.0 0.2
13:50 17.8 12.5 71 1015.8 13.0 W 17.4 0.0 0.2
13:51 17.9 12.1 69 1015.8 15.9 W 15.9 0.0 0.2
13:52 17.8 11.6 67 1015.8 12.1 SW 15.9 0.0 0.2
13:53 17.7 11.7 68 1015.9 14.5 W 15.9 0.0 0.2
13:54 17.8 12.0 69 1015.7 15.9 SW 15.9 0.0 0.2
13:55 17.7 11.9 69 1015.8 14.5 NW 15.9 0.0 0.2
13:56 17.7 11.7 68 1015.8 11.4 WNW 15.9 0.0 0.2
13:57 17.7 11.7 68 1015.7 11.4 W 15.9 0.0 0.2
13:58 17.7 11.9 69 1015.7 12.1 SW 15.9 0.0 0.2
13:59 17.7 12.2 70 1015.8 10.7 WNW 15.9 0.0 0.2
14:00 17.7 12.2 70 1015.8 9.8 W 15.9 0.0 0.2
14:01 17.8 12.3 70 1015.8 13.6 WSW 15.9 0.0 0.2
14:02 17.9 12.4 70 1015.8 12.1 S 15.9 0.0 0.2
14:03 17.9 12.4 70 1015.7 12.1 WSW 15.9 0.0 0.2
14:04 17.9 12.4 70 1015.7 10.7 W 14.5 0.0 0.2
14:05 17.9 12.6 71 1015.7 13.6 W 14.5 0.0 0.2
14:06 17.9 12.4 70 1015.8 16.8 WSW 16.8 0.0 0.2
14:07 18.0 12.5 70 1015.9 13.0 NW 16.8 0.0 0.2
14:08 18.0 12.5 70 1015.8 14.5 SW 16.8 0.0 0.2
14:09 18.0 12.5 70 1015.8 11.4 NW 16.8 0.0 0.2
14:10 17.9 11.9 68 1016.0 15.2 SW 16.8 0.0 0.2
14:11 17.8 12.0 69 1015.9 13.0 SW 16.8 0.0 0.2
14:12 17.8 11.8 68 1016.0 14.5 SW 16.8 0.0 0.2
14:13 17.7 11.9 69 1016.0 15.2 SW 17.4 0.0 0.2
14:14 17.6 11.9 69 1016.1 15.9 W 17.4 0.0 0.2
14:15 17.6 11.9 69 1016.1 9.8 W 17.4 0.0 0.2
14:16 17.6 11.9 69 1015.9 13.0 W 17.4 0.0 0.2
14:17 17.7 12.4 71 1016.0 13.0 SW 17.4 0.0 0.2
14:18 17.8 12.5 71 1016.0 13.0 WSW 17.4 0.0 0.2
14:19 17.8 12.3 70 1015.9 13.6 N 17.4 0.0 0.2
14:20 17.9 12.4 70 1015.9 14.5 SW 17.4 0.0 0.2
14:21 17.9 12.4 70 1015.8 15.9 W 17.4 0.0 0.2
14:22 17.9 12.1 69 1015.8 18.3 SW 18.3 0.0 0.2
14:23 18.0 12.5 70 1015.8 13.0 WSW 18.3 0.0 0.2
14:24 18.0 12.0 68 1015.9 9.8 W 18.3 0.0 0.2
14:25 18.0 12.0 68 1015.8 9.2 NW 18.3 0.0 0.2
14:26 18.0 12.2 69 1015.9 12.1 NW 18.3 0.0 0.2
14:27 17.9 11.9 68 1016.0 11.4 NW 18.3 0.0 0.2
14:28 17.8 12.0 69 1015.9 12.1 SW 18.3 0.0 0.2
14:29 17.8 12.5 71 1015.9 7.6 SW 18.3 0.0 0.2
14:30 17.9 12.6 71 1015.9 10.7 NW 18.3 0.0 0.2
14:31 17.9 12.6 71 1015.9 9.8 SW 18.3 0.0 0.2
14:32 17.9 12.4 70 1016.0 13.6 NW 15.2 0.0 0.2
14:33 17.9 12.1 69 1016.0 10.7 NW 15.2 0.0 0.2
14:34 17.8 12.3 70 1015.9 9.8 NW 15.2 0.0 0.2
14:35 17.8 12.5 71 1015.9 6.9 NW 15.2 0.0 0.2
14:36 17.9 12.6 71 1015.9 8.3 NW 15.2 0.0 0.2
14:37 17.9 12.6 71 1016.0 6.9 W 14.5 0.0 0.2
14:38 17.9 12.4 70 1016.1 10.7 W 14.5 0.0 0.2
14:39 17.9 12.4 70 1016.0 8.3 W 14.5 0.0 0.2
14:40 17.8 12.0 69 1015.9 11.4 NE 14.5 0.0 0.2
14:41 17.8 12.0 69 1015.9 7.6 NE 14.5 0.0 0.2
14:42 17.7 11.9 69 1015.9 11.4 E 14.5 0.0 0.2
14:43 17.6 11.9 69 1015.9 11.4 E 13.6 0.0 0.2
14:44 17.4 11.7 69 1015.9 12.1 N 13.0 0.0 0.2
14:45 17.3 11.6 69 1016.0 8.3 NW 13.0 0.0 0.2
14:46 17.3 11.6 69 1016.0 12.1 SW 13.0 0.0 0.2
14:47 17.2 11.5 69 1016.0 9.8 NW 13.0 0.0 0.2
14:48 17.2 11.5 69 1016.2 9.8 NW 13.0 0.0 0.2
14:49 17.1 11.4 69 1016.2 9.2 SW 13.0 0.0 0.2
14:50 17.0 11.3 69 1016.0 10.7 NW 13.0 0.0 0.2
14:51 17.0 11.3 69 1016.1 11.4 N 13.0 0.0 0.2
14:52 17.0 11.3 69 1016.2 10.7 NW 13.0 0.0 0.2
14:53 16.9 11.2 69 1016.1 7.6 NE 13.0 0.0 0.2
14:54 16.9 11.4 70 1016.2 6.9 SW 12.1 0.0 0.2
14:55 16.9 11.4 70 1016.0 10.7 W 12.1 0.0 0.2
14:56 16.8 11.3 70 1016.0 7.6 NW 12.1 0.0 0.2
14:57 16.8 11.3 70 1016.2 13.0 NW 13.0 0.0 0.2
14:58 16.8 11.3 70 1016.1 9.8 W 13.0 0.0 0.2
14:59 16.8 11.3 70 1016.0 6.9 WSW 13.0 0.0 0.2
15:00 16.8 11.3 70 1016.3 9.2 W 13.0 0.0 0.2
15:01 16.7 11.2 70 1016.2 8.3 NW 13.0 0.0 0.2
15:02 16.7 11.2 70 1016.2 6.0 N 13.0 0.0 0.2
15:03 16.7 11.2 70 1016.3 7.6 W 13.0 0.0 0.2
15:04 16.7 11.2 70 1016.3 9.2 W 13.0 0.0 0.2
15:05 16.7 11.4 71 1016.2 8.3 NW 13.0 0.0 0.2
15:06 16.7 11.4 71 1016.2 8.3 SW 13.0 0.0 0.2
15:08 16.7 11.2 70 1016.2 7.6 W 9.8 0.0 0.2
15:09 16.7 11.2 70 1016.3 13.0 W 13.0 0.0 0.2
15:10 16.7 11.2 70 1016.3 8.3 WNW 13.0 0.0 0.2
15:11 16.7 11.2 70 1016.3 15.2 NW 15.2 0.0 0.2
15:12 16.6 11.1 70 1016.3 8.3 W 15.2 0.0 0.2
15:13 16.7 11.2 70 1016.3 8.3 SW 15.2 0.0 0.2
15:14 16.7 11.2 70 1016.2 10.7 W 15.2 0.0 0.2
15:15 16.7 11.2 70 1016.2 10.7 W 15.2 0.0 0.2
15:16 16.7 11.2 70 1016.2 10.7 WNW 15.2 0.0 0.2
15:17 16.7 11.2 70 1016.3 10.7 W 15.2 0.0 0.2
15:18 16.6 11.1 70 1016.3 9.2 WNW 15.2 0.0 0.2
15:19 16.6 11.1 70 1016.3 9.2 SW 15.2 0.0 0.2
15:20 16.6 11.1 70 1016.4 9.8 NW 15.2 0.0 0.2
15:21 16.6 11.1 70 1016.3 9.2 NW 15.2 0.0 0.2
15:22 16.6 11.3 71 1016.3 7.6 NW 12.1 0.0 0.2
15:23 16.6 11.3 71 1016.4 7.6 WNW 12.1 0.0 0.2
15:25 16.6 11.3 71 1016.3 10.7 S 12.1 0.0 0.2
15:26 16.7 11.4 71 1016.4 9.8 W 11.4 0.0 0.2
15:27 16.7 11.4 71 1016.5 9.8 W 11.4 0.0 0.2
15:28 16.7 11.4 71 1016.3 10.7 NW 11.4 0.0 0.2
15:29 16.8 11.5 71 1016.4 8.3 NW 11.4 0.0 0.2
15:30 16.8 11.3 70 1016.5 10.7 SE 11.4 0.0 0.2
15:31 16.8 11.3 70 1016.4 9.2 WSW 11.4 0.0 0.2
15:32 16.8 11.5 71 1016.5 11.4 NW 11.4 0.0 0.2
15:33 16.8 11.5 71 1016.5 6.9 NW 11.4 0.0 0.2
15:34 16.8 11.5 71 1016.4 8.3 E 11.4 0.0 0.2
15:35 16.8 11.5 71 1016.4 9.8 SW 11.4 0.0 0.2
15:36 16.8 11.5 71 1016.5 8.3 NW 11.4 0.0 0.2
15:37 16.9 11.6 71 1016.4 9.8 N 11.4 0.0 0.2
15:38 16.9 11.6 71 1016.5 8.3 SW 11.4 0.0 0.2
15:39 16.9 11.6 71 1016.4 12.1 W 12.1 0.0 0.2
15:40 17.0 11.5 70 1016.5 9.8 NW 12.1 0.0 0.2
15:42 16.9 11.4 70 1016.5 10.7 W 14.5 0.0 0.2
15:43 16.8 11.3 70 1016.4 11.4 NW 14.5 0.0 0.2
15:44 16.8 11.3 70 1016.3 8.3 NW 14.5 0.0 0.2
15:45 16.7 11.2 70 1016.5 8.3 NW 14.5 0.0 0.2
15:46 16.7 11.2 70 1016.6 9.8 W 14.5 0.0 0.2
15:47 16.6 11.1 70 1016.5 13.0 W 14.5 0.0 0.2
15:48 16.7 11.2 70 1016.4 8.3 NW 14.5 0.0 0.2
15:49 16.6 11.3 71 1016.6 12.1 N 14.5 0.0 0.2
15:50 16.6 11.3 71 1016.6 12.1 N 14.5 0.0 0.2
15:51 16.6 11.3 71 1016.5 10.7 W 14.5 0.0 0.2
15:52 16.5 11.2 71 1016.6 11.4 W 13.0 0.0 0.2
15:53 16.5 11.0 70 1016.7 9.2 W 13.0 0.0 0.2
15:54 16.5 11.2 71 1016.7 8.3 W 13.0 0.0 0.2
15:55 16.5 11.0 70 1016.6 9.8 W 13.0 0.0 0.2
15:56 16.5 11.0 70 1016.8 9.2 S 13.0 0.0 0.2
15:57 16.4 11.1 71 1016.8 12.1 NW 13.0 0.0 0.2
15:58 16.4 11.1 71 1016.7 9.2 W 12.1 0.0 0.2
16:01 16.5 11.2 71 1016.7 7.6 SW 13.0 0.0 0.2
16:02 16.5 11.2 71 1016.8 10.7 NW 13.0 0.0 0.2
16:03 16.5 11.2 71 1016.9 10.7 NW 13.0 0.0 0.2
16:04 16.6 11.3 71 1016.9 12.1 NW 13.0 0.0 0.2
16:05 16.6 11.3 71 1016.7 7.6 S 13.0 0.0 0.2
16:06 16.6 11.5 72 1016.8 7.6 SW 13.0 0.0 0.2
16:07 16.6 11.3 71 1016.7 11.4 NW 13.0 0.0 0.2
16:08 16.6 11.3 71 1016.6 10.7 W 13.0 0.0 0.2
16:09 16.5 11.2 71 1016.6 11.4 NE 13.0 0.0 0.2
16:10 16.5 11.2 71 1016.6 12.1 NW 13.0 0.0 0.2
16:11 16.5 11.2 71 1016.7 13.6 NW 13.6 0.0 0.2
16:12 16.5 11.4 72 1016.8 9.8 W 13.6 0.0 0.2
16:13 16.5 11.4 72 1016.7 13.0 NW 13.6 0.0 0.2
16:14 16.5 11.4 72 1016.7 16.8 SW 16.8 0.0 0.2
16:15 16.5 11.4 72 1016.8 11.4 SW 16.8 0.0 0.2
16:17 16.6 11.7 73 1016.7 9.2 NW 16.8 0.0 0.2
16:18 16.7 11.8 73 1016.7 10.7 SW 16.8 0.0 0.2
16:19 16.8 11.9 73 1016.7 11.4 NE 16.8 0.0 0.2
16:20 16.9 12.0 73 1016.8 10.7 SW 16.8 0.0 0.2
16:21 17.1 12.2 73 1016.7 6.9 W 16.8 0.0 0.2
16:22 17.2 12.5 74 1016.7 9.8 WSW 16.8 0.0 0.2
16:23 17.4 12.5 73 1016.8 8.3 NW 16.8 0.0 0.2
16:24 17.5 12.4 72 1016.8 10.7 NW 11.4 0.0 0.2
16:25 17.6 12.3 71 1016.5 10.7 W 11.4 0.0 0.2
16:26 17.7 12.4 71 1016.7 9.8 W 11.4 0.0 0.2
16:27 17.8 12.3 70 1016.7 12.1 W 12.1 0.0 0.2
16:28 18.0 12.2 69 1016.7 12.1 SW 12.1 0.0 0.2
16:29 18.1 12.6 70 1016.8 8.3 NW 12.1 0.0 0.2
16:30 18.1 12.1 68 1016.6 9.8 NE 12.1 0.0 0.2
16:31 18.2 12.2 68 1016.5 13.0 SE 13.0 0.0 0.2
16:32 18.3 12.5 69 1016.6 9.2 SW 13.0 0.0 0.2
16:33 18.3 12.5 69 1016.6 7.6 NW 13.0 0.0 0.2
16:35 18.4 12.2 67 1016.6 13.0 NNE 15.2 0.0 0.2
16:36 18.3 12.3 68 1016.7 9.8 W 15.2 0.0 0.2
16:37 18.3 12.1 67 1016.8 12.1 W 15.2 0.0 0.2
16:39 18.3 12.5 69 1016.7 13.0 NE 15.2 0.0 0.2
16:40 18.3 12.5 69 1016.8 9.2 SW 15.2 0.0 0.2
16:41 18.3 12.3 68 1016.7 9.8 W 15.2 0.0 0.2
16:42 18.3 12.3 68 1016.8 8.3 NW 15.2 0.0 0.2
16:43 18.3 12.3 68 1016.9 11.4 NW 15.2 0.0 0.2
16:44 18.3 12.1 67 1016.8 10.7 NW 13.0 0.0 0.2
16:45 18.2 12.0 67 1016.8 12.1 NW 13.0 0.0 0.2
16:46 18.2 12.0 67 1016.8 12.1 NW 13.0 0.0 0.2
16:47 18.1 11.9 67 1016.9 11.4 NW 15.2 0.0 0.2
16:48 18.0 11.8 67 1016.8 12.1 NW 15.2 0.0 0.2
16:49 18.0 11.8 67 1016.9 11.4 NW 15.2 0.0 0.2
16:50 17.9 11.7 67 1016.9 10.7 NW 15.2 0.0 0.2
16:51 17.8 11.6 67 1016.8 11.4 NW 15.2 0.0 0.2
16:52 17.8 11.6 67 1017.0 13.6 NW 15.2 0.0 0.2
16:53 17.7 11.5 67 1017.0 12.1 NW 15.2 0.0 0.2
16:54 17.6 11.4 67 1017.2 10.7 WSW 15.2 0.0 0.2
16:55 17.6 11.4 67 1017.1 9.2 NW 15.2 0.0 0.2
16:57 17.4 11.7 69 1016.9 8.3 W 15.2 0.0 0.2
16:58 17.4 11.7 69 1016.9 8.3 W 15.2 0.0 0.2
16:59 17.4 11.7 69 1016.9 11.4 SW 15.2 0.0 0.2
17:00 17.3 11.6 69 1016.9 8.3 NW 15.2 0.0 0.2
17:01 17.2 11.3 68 1017.0 9.2 NNW 15.2 0.0 0.2
17:02 17.2 11.5 69 1016.9 9.2 W 15.2 0.0 0.2
17:03 17.1 11.4 69 1016.9 9.2 W 15.2 0.0 0.2
17:04 17.1 11.4 69 1016.9 10.7 NW 15.2 0.0 0.2
17:05 17.0 11.3 69 1016.9 10.7 W 15.2 0.0 0.2
17:06 17.0 11.3 69 1017.0 9.8 W 15.2 0.0 0.2
17:07 16.8 11.1 69 1016.9 13.0 NW 13.6 0.0 0.2
17:08 16.8 11.3 70 1016.9 8.3 SW 13.6 0.0 0.2
17:09 16.8 11.3 70 1017.0 11.4 NW 13.6 0.0 0.2
17:10 16.7 11.2 70 1017.1 11.4 NW 13.6 0.0 0.2
17:11 16.7 11.2 70 1017.1 10.7 NW 13.6 0.0 0.2
17:12 16.6 10.9 69 1017.0 9.2 W 13.6 0.0 0.2
17:13 16.5 11.0 70 1017.1 8.3 NW 13.6 0.0 0.2
17:14 16.5 11.0 70 1017.0 6.9 N 13.6 0.0 0.2
17:15 16.4 10.9 70 1017.1 9.2 NW 13.6 0.0 0.2
17:16 16.4 10.9 70 1017.1 11.4 N 13.6 0.0 0.2
17:17 16.4 10.9 70 1017.3 10.7 W 13.0 0.0 0.2
17:18 16.3 10.8 70 1017.2 10.7 W 12.1 0.0 0.2
17:19 16.3 10.8 70 1017.3 6.0 W 12.1 0.0 0.2
17:21 16.2 10.9 71 1017.3 12.1 W 12.1 0.0 0.2
17:22 16.2 10.9 71 1017.4 10.7 SW 12.1 0.0 0.2
17:23 16.2 10.9 71 1017.3 9.2 SW 12.1 0.0 0.2
17:24 16.1 10.8 71 1017.2 9.2 NW 12.1 0.0 0.2
17:25 16.1 10.8 71 1017.2 10.7 NW 12.1 0.0 0.2
17:26 16.1 10.8 71 1017.3 7.6 SW 12.1 0.0 0.2
17:27 16.1 10.8 71 1017.2 11.4 W 12.1 0.0 0.2
17:28 16.0 11.0 72 1017.2 6.0 W 12.1 0.0 0.2
17:29 16.0 11.0 72 1017.1 9.2 NW 12.1 0.0 0.2
17:30 16.0 11.0 72 1017.1 13.6 NW 13.6 0.0 0.2
17:31 16.0 11.0 72 1017.1 13.0 NW 13.6 0.0 0.2
17:32 15.9 10.9 72 1017.1 13.0 NW 13.6 0.0 0.2
17:33 15.9 10.9 72 1017.2 13.0 W 13.6 0.0 0.2
17:34 15.9 10.9 72 1017.1 3.8 NW 13.6 0.0 0.2
17:35 15.9 11.1 73 1017.2 5.4 NE 13.6 0.0 0.2
17:36 15.9 11.1 73 1017.0 7.6 NW 13.6 0.0 0.2
17:37 15.9 11.1 73 1017.2 10.7 WNW 13.6 0.0 0.2
17:39 15.9 11.1 73 1017.3 8.3 NW 13.6 0.0 0.2
17:40 15.9 11.1 73 1017.3 6.9 NW 13.0 0.0 0.2
17:41 15.9 11.1 73 1017.3 10.7 SW 13.0 0.0 0.2
17:42 15.9 11.1 73 1017.3 7.6 N 13.0 0.0 0.2
17:43 15.9 11.1 73 1017.3 7.6 WNW 10.7 0.0 0.2
17:44 15.8 11.0 73 1017.4 8.3 W 12.1 0.0 0.2
17:45 15.8 11.0 73 1017.2 7.6 W 12.1 0.0 0.2
17:46 15.8 11.0 73 1017.2 7.6 W 12.1 0.0 0.2
17:47 15.8 11.0 73 1017.3 8.3 SW 12.1 0.0 0.2
17:48 15.8 11.2 74 1017.2 6.0 N 12.1 0.0 0.2
17:49 15.8 11.2 74 1017.3 8.3 NW 12.1 0.0 0.2
17:50 15.8 11.2 74 1017.3 8.3 NW 12.1 0.0 0.2
17:51 15.9 11.3 74 1017.3 9.2 SW 12.1 0.0 0.2
17:52 15.9 11.3 74 1017.4 6.9 W 12.1 0.0 0.2
17:53 15.9 11.3 74 1017.4 7.6 NW 12.1 0.0 0.2
17:54 16.0 11.4 74 1017.2 6.0 NW 12.1 0.0 0.2
17:55 16.1 11.5 74 1017.3 11.4 W 11.4 0.0 0.2
17:56 16.3 11.5 73 1017.2 10.7 NW 11.4 0.0 0.2
17:58 16.3 11.5 73 1017.3 9.8 W 11.4 0.0 0.2
17:59 16.3 11.5 73 1017.3 9.8 W 11.4 0.0 0.2
18:00 16.3 11.5 73 1017.3 13.0 N 13.0 0.0 0.2
18:01 16.4 11.6 73 1017.3 7.6 NW 13.0 0.0 0.2
18:02 16.4 11.3 72 1017.2 10.7 WNW 13.0 0.0 0.2
18:03 16.4 11.6 73 1017.3 8.3 W 13.0 0.0 0.2
18:04 16.5 11.4 72 1017.2 9.2 NW 13.0 0.0 0.2
18:05 16.5 11.4 72 1017.2 9.2 NW 13.0 0.0 0.2
18:06 16.5 11.4 72 1017.3 10.7 NW 13.0 0.0 0.2
18:07 16.5 11.4 72 1017.3 7.6 W 13.0 0.0 0.2
18:08 16.5 11.4 72 1017.2 13.0 NW 13.0 0.0 0.2
18:09 16.5 11.4 72 1017.1 6.9 W 13.0 0.0 0.2
18:10 16.5 11.4 72 1017.2 7.6 WNW 13.0 0.0 0.2
18:11 16.5 11.4 72 1017.3 9.2 NW 13.0 0.0 0.2
18:12 16.5 11.4 72 1017.2 7.6 NW 13.0 0.0 0.2
18:13 16.5 11.4 72 1017.2 9.2 NW 13.0 0.0 0.2
18:14 16.5 11.4 72 1017.3 5.4 SW 13.0 0.0 0.2
18:15 16.5 11.4 72 1017.3 10.7 SW 13.0 0.0 0.2
18:17 16.6 11.3 71 1017.1 12.1 NW 13.0 0.0 0.2
18:18 16.6 11.5 72 1017.0 6.0 NE 12.1 0.0 0.2
18:19 16.7 11.4 71 1017.1 9.8 NW 12.1 0.0 0.2
18:20 16.7 11.4 71 1017.2 6.0 SW 12.1 0.0 0.2
18:21 16.7 11.4 71 1017.0 7.6 NW 12.1 0.0 0.2
18:22 16.7 11.4 71 1017.1 6.9 N 12.1 0.0 0.2
18:23 16.7 11.4 71 1017.2 9.2 NW 12.1 0.0 0.2
18:24 16.7 11.4 71 1017.0 8.3 NE 12.1 0.0 0.2
18:25 16.7 11.4 71 1017.0 8.3 NE 12.1 0.0 0.2
18:26 16.7 11.4 71 1017.1 11.4 NW 12.1 0.0 0.2
18:27 16.6 11.3 71 1017.0 10.7 NW 12.1 0.0 0.2
18:28 16.6 11.3 71 1017.0 9.2 WNW 11.4 0.0 0.2
18:29 16.5 11.2 71 1017.1 9.2 NW 11.4 0.0 0.2
18:30 16.5 11.2 71 1017.0 7.6 NW 11.4 0.0 0.2
18:31 16.5 11.2 71 1017.1 9.2 NW 11.4 0.0 0.2
18:33 16.5 11.2 71 1017.1 9.8 NW 11.4 0.0 0.2
18:34 16.5 11.2 71 1017.1 9.2 S 11.4 0.0 0.2
18:35 16.5 11.2 71 1017.2 9.2 NW 11.4 0.0 0.2
18:36 16.5 11.2 71 1017.3 9.2 NW 10.7 0.0 0.2
18:37 16.4 11.1 71 1017.2 11.4 NW 11.4 0.0 0.2
18:38 16.4 11.1 71 1017.1 9.2 N 11.4 0.0 0.2
18:39 16.4 11.3 72 1017.0 9.2 NW 11.4 0.0 0.2
18:40 16.3 11.0 71 1017.2 9.2 W 11.4 0.0 0.2
18:41 16.3 11.0 71 1017.2 7.6 W 11.4 0.0 0.2
18:42 16.3 11.3 72 1017.2 8.3 NW 11.4 0.0 0.2
18:43 16.2 11.2 72 1017.1 8.3 NW 11.4 0.0 0.2
18:44 16.2 11.2 72 1017.1 9.2 NW 11.4 0.0 0.2
18:45 16.1 11.1 72 1017.1 6.0 NW 11.4 0.0 0.2
18:46 16.1 11.1 72 1017.1 7.6 NW 11.4 0.0 0.2
18:47 16.1 11.1 72 1017.2 11.4 N 11.4 0.0 0.2
18:48 16.0 11.0 72 1017.3 9.8 N 11.4 0.0 0.2
18:49 16.0 11.0 72 1017.3 9.8 WNW 11.4 0.0 0.2
18:50 16.0 11.0 72 1017.1 8.3 NW 11.4 0.0 0.2
18:52 15.9 10.9 72 1017.3 7.6 NW 11.4 0.0 0.2
18:53 15.9 10.9 72 1017.3 7.6 NW 11.4 0.0 0.2
18:54 15.9 10.9 72 1017.4 10.7 NW 11.4 0.0 0.2
18:55 15.9 10.9 72 1017.4 12.1 NW 12.1 0.0 0.2
18:56 15.9 10.9 72 1017.4 10.7 NW 12.1 0.0 0.2
18:57 15.9 10.9 72 1017.4 7.6 SW 12.1 0.0 0.2
18:58 15.9 10.9 72 1017.5 9.2 NW 12.1 0.0 0.2
18:59 15.9 10.9 72 1017.3 8.3 NW 12.1 0.0 0.2
19:00 16.0 11.0 72 1017.3 8.3 NW 12.1 0.0 0.2
19:01 16.0 11.0 72 1017.5 8.3 NW 12.1 0.0 0.2
19:02 16.0 11.0 72 1017.3 7.6 W 12.1 0.0 0.2
19:03 16.0 11.2 73 1017.5 6.9 WSW 12.1 0.0 0.2
19:04 16.1 11.3 73 1017.4 9.8 NW 12.1 0.0 0.2
19:05 16.1 11.3 73 1017.6 8.3 SW 12.1 0.0 0.2
19:06 16.1 11.1 72 1017.4 8.3 W 11.4 0.0 0.2
19:07 16.1 11.1 72 1017.4 9.8 W 9.8 0.0 0.2
19:08 16.1 11.1 72 1017.5 8.3 NW 9.8 0.0 0.2
19:09 16.1 11.1 72 1017.6 8.3 NW 9.8 0.0 0.2
19:10 16.0 11.0 72 1017.6 9.2 NW 9.8 0.0 0.2
19:11 16.0 11.0 72 1017.6 9.8 N 9.8 0.0 0.2
19:12 15.9 10.9 72 1017.5 9.8 NW 9.8 0.0 0.2
19:13 15.9 10.9 72 1017.5 9.8 NW 9.8 0.0 0.2
19:14 15.9 10.9 72 1017.5 9.2 NW 9.8 0.0 0.2
19:15 15.9 10.9 72 1017.4 9.2 W 9.8 0.0 0.2
19:17 15.8 11.0 73 1017.6 11.4 W 11.4 0.0 0.2
19:18 15.8 11.0 73 1017.6 9.8 NW 11.4 0.0 0.2
19:19 15.9 11.1 73 1017.5 8.3 SE 11.4 0.0 0.2
19:20 15.9 11.1 73 1017.6 9.8 NW 11.4 0.0 0.2
19:21 15.9 11.1 73 1017.7 9.8 NW 11.4 0.0 0.2
19:22 15.9 11.1 73 1017.6 9.8 NW 11.4 0.0 0.2
19:23 15.9 11.1 73 1017.6 9.8 NW 11.4 0.0 0.2
19:24 16.0 11.2 73 1017.8 11.4 WSW 11.4 0.0 0.2
19:25 16.0 11.2 73 1017.8 7.6 WNW 11.4 0.0 0.2
19:26 16.0 11.2 73 1017.8 8.3 WSW 11.4 0.0 0.2
19:27 16.0 11.2 73 1017.9 5.4 NW 11.4 0.0 0.2
19:28 16.0 11.2 73 1017.7 9.8 NW 11.4 0.0 0.2
19:29 16.1 11.3 73 1017.8 6.9 W 11.4 0.0 0.2
19:30 16.1 11.3 73 1017.8 11.4 SW 11.4 0.0 0.2
19:31 16.1 11.3 73 1017.8 6.9 N 11.4 0.0 0.2
19:32 16.2 11.4 73 1017.6 11.4 SW 11.4 0.0 0.2
19:33 16.2 11.4 73 1017.8 9.8 W 11.4 0.0 0.2
19:35 16.2 11.4 73 1017.7 13.0 WSW 13.0 0.0 0.2
19:36 16.2 11.4 73 1017.7 10.7 WNW 13.0 0.0 0.2
19:37 16.2 11.4 73 1017.7 9.2 W 13.0 0.0 0.2
19:38 16.2 11.4 73 1017.8 9.2 NW 13.0 0.0 0.2
19:39 16.1 11.3 73 1017.8 6.9 SW 13.0 0.0 0.2
19:40 16.1 11.3 73 1017.8 5.4 NW 13.0 0.0 0.2
19:41 16.1 11.3 73 1017.8 5.4 NW 13.0 0.0 0.2
19:42 16.1 11.3 73 1017.8 4.5 NW 13.0 0.0 0.2
19:43 16.1 11.3 73 1017.8 4.5 NW 13.0 0.0 0.2
19:44 16.1 11.3 73 1017.7 6.0 N 13.0 0.0 0.2
19:45 16.0 11.2 73 1017.8 11.4 W 13.0 0.0 0.2
19:46 16.0 11.2 73 1018.0 7.6 W 11.4 0.0 0.2
19:47 15.9 11.1 73 1017.8 5.4 NW 11.4 0.0 0.2
19:48 15.9 11.1 73 1017.9 6.9 SW 11.4 0.0 0.2
19:49 15.9 11.1 73 1018.0 6.9 NW 11.4 0.0 0.2
19:50 15.9 11.1 73 1017.9 9.2 NW 11.4 0.0 0.2
19:51 15.8 11.0 73 1017.9 6.9 NW 11.4 0.0 0.2
19:52 15.8 11.0 73 1018.1 10.7 NNW 11.4 0.0 0.2
19:54 15.8 11.0 73 1018.0 6.0 NW 11.4 0.0 0.2
19:55 15.7 10.9 73 1017.9 4.5 SW 10.7 0.0 0.2
19:56 15.7 10.9 73 1017.8 6.0 SW 10.7 0.0 0.2
19:57 15.7 10.9 73 1018.0 6.0 SW 10.7 0.0 0.2
19:58 15.6 10.8 73 1018.0 13.6 WNW 13.6 0.0 0.2
19:59 15.6 10.8 73 1018.0 6.9 W 13.6 0.0 0.2
20:00 15.5 10.7 73 1018.0 6.0 SW 13.6 0.0 0.2
20:01 15.5 10.7 73 1018.0 6.0 SW 13.6 0.0 0.2
20:02 15.4 10.8 74 1018.0 8.3 NW 13.6 0.0 0.2
20:03 15.4 10.8 74 1017.9 6.9 NW 13.6 0.0 0.2
20:04 15.4 10.8 74 1017.8 8.3 SW 13.6 0.0 0.2
20:05 15.4 10.8 74 1017.8 10.7 W 13.6 0.0 0.2
20:06 15.3 10.7 74 1017.8 6.0 W 13.6 0.0 0.2
20:07 15.3 10.7 74 1017.8 12.1 W 13.6 0.0 0.2
20:08 15.2 10.6 74 1017.9 7.6 W 13.6 0.0 0.2
20:09 15.2 10.8 75 1017.9 3.8 W 12.1 0.0 0.2
20:10 15.2 10.8 75 1018.0 6.0 W 12.1 0.0 0.2
20:12 15.2 10.8 75 1018.1 6.0 W 12.1 0.0 0.2
20:13 15.2 10.8 75 1018.0 6.0 W 12.1 0.0 0.2
20:14 15.2 10.8 75 1017.9 6.0 WSW 12.1 0.0 0.2
20:15 15.1 10.7 75 1018.0 6.9 S 12.1 0.0 0.2
20:16 15.2 10.8 75 1018.2 6.0 W 12.1 0.0 0.2
20:17 15.1 10.9 76 1018.0 8.3 SW 8.3 0.0 0.2
20:18 15.1 10.9 76 1018.2 8.3 SW 8.3 0.0 0.2
20:19 15.1 10.9 76 1018.1 5.4 SW 8.3 0.0 0.2
20:20 15.1 10.9 76 1018.2 4.5 NW 8.3 0.0 0.2
20:21 15.1 10.9 76 1018.1 8.3 NW 8.3 0.0 0.2
20:22 15.1 10.9 76 1018.2 7.6 W 11.4 0.0 0.2
20:23 15.1 10.9 76 1018.2 8.3 W 11.4 0.0 0.2
20:24 15.1 10.9 76 1018.2 9.8 W 11.4 0.0 0.2
20:25 15.0 10.8 76 1018.2 10.7 SW 11.4 0.0 0.2
20:26 15.0 10.8 76 1018.3 7.6 W 11.4 0.0 0.2
20:27 15.0 10.8 76 1018.2 8.3 W 11.4 0.0 0.2
20:28 15.0 10.8 76 1018.2 10.7 NW 11.4 0.0 0.2
20:29 14.9 10.7 76 1018.3 6.9 NW 11.4 0.0 0.2
20:30 14.9 10.5 75 1018.2 6.9 N 11.4 0.0 0.2
20:32 14.8 10.6 76 1018.2 7.6 W 10.7 0.0 0.2
20:33 14.8 10.6 76 1018.2 5.4 NW 10.7 0.0 0.2
20:34 14.8 10.6 76 1018.2 10.7 SW 10.7 0.0 0.2
20:35 14.8 10.6 76 1018.2 4.5 W 10.7 0.0 0.2
20:36 14.8 10.6 76 1018.3 5.4 SW 10.7 0.0 0.2
20:37 14.8 10.6 76 1018.3 5.4 SW 10.7 0.0 0.2
20:38 14.7 10.5 76 1018.3 6.9 NE 10.7 0.0 0.2
20:39 14.7 10.5 76 1018.1 4.5 W 10.7 0.0 0.2
20:40 14.7 10.5 76 1018.3 5.4 NW 10.7 0.0 0.2
20:41 14.6 10.4 76 1018.3 5.4 SW 10.7 0.0 0.2
20:42 14.6 10.4 76 1018.2 6.0 NW 10.7 0.0 0.2
20:43 14.6 10.4 76 1018.3 9.2 SW 10.7 0.0 0.2
20:44 14.5 10.3 76 1018.3 6.0 NW 10.7 0.0 0.2
20:45 14.5 10.3 76 1018.3 5.4 SW 9.2 0.0 0.2
20:46 14.4 10.2 76 1018.1 11.4 W 11.4 0.0 0.2
20:47 14.4 10.2 76 1018.2 4.5 W 11.4 0.0 0.2
20:48 14.3 10.1 76 1018.1 7.6 W 11.4 0.0 0.2
20:49 14.3 10.1 76 1018.0 7.6 W 11.4 0.0 0.2
20:51 14.2 10.2 77 1018.1 6.0 W 11.4 0.0 0.2
20:52 14.2 10.2 77 1018.2 5.4 WNW 11.4 0.0 0.2
20:53 14.1 10.1 77 1018.2 4.5 W 11.4 0.0 0.2
20:54 14.1 10.1 77 1018.0 4.5 W 11.4 0.0 0.2
20:55 14.0 10.0 77 1018.1 4.5 W 11.4 0.0 0.2
20:56 14.0 10.0 77 1018.0 6.0 WSW 11.4 0.0 0.2
20:57 14.0 10.0 77 1018.0 6.9 SW 9.2 0.0 0.2
20:58 14.0 10.0 77 1018.1 6.0 NE 9.2 0.0 0.2
20:59 13.9 9.9 77 1018.3 4.5 N 7.6 0.0 0.2
21:00 13.9 9.9 77 1018.0 3.8 W 6.9 0.0 0.2
21:01 13.9 9.9 77 1018.2 3.8 W 6.9 0.0 0.2
21:02 13.9 9.9 77 1018.0 3.8 W 6.9 0.0 0.2
21:03 13.9 9.9 77 1018.2 3.8 W 6.9 0.0 0.2
21:04 13.9 9.9 77 1018.2 3.8 W 6.9 0.0 0.2
21:05 13.9 9.9 77 1018.1 3.8 W 6.9 0.0 0.2
21:06 13.9 9.9 77 1018.3 3.8 W 6.9 0.0 0.2
21:07 13.6 9.8 78 1018.1 7.6 W 7.6 0.0 0.2
21:09 13.6 9.8 78 1018.1 5.4 WSW 7.6 0.0 0.2
21:10 13.6 9.8 78 1018.2 3.8 W 7.6 0.0 0.2
21:11 13.5 9.9 79 1018.3 3.1 W 7.6 0.0 0.2
21:12 13.5 9.9 79 1018.4 4.5 WSW 7.6 0.0 0.2
21:13 13.5 9.9 79 1018.3 5.4 SW 7.6 0.0 0.2
21:14 13.5 9.9 79 1018.2 2.2 W 7.6 0.0 0.2
21:16 13.4 9.8 79 1018.2 4.5 W 7.6 0.0 0.2
21:17 13.4 9.8 79 1018.2 4.5 SW 5.4 0.0 0.2
21:18 13.3 9.7 79 1018.1 3.8 W 5.4 0.0 0.2
21:19 13.3 9.7 79 1018.2 3.8 N 5.4 0.0 0.2
21:20 13.3 9.7 79 1018.2 3.8 W 5.4 0.0 0.2
21:21 13.3 9.7 79 1018.2 3.8 NW 5.4 0.0 0.2
21:22 13.2 9.6 79 1018.2 2.2 W 5.4 0.0 0.2
21:23 13.2 9.6 79 1018.2 2.2 W 5.4 0.0 0.2
21:24 13.2 9.6 79 1018.3 4.5 W 4.5 0.0 0.2
21:25 13.2 9.6 79 1018.3 3.1 W 4.5 0.0 0.2
21:26 13.1 9.7 80 1018.2 3.1 NW 4.5 0.0 0.2
21:27 13.1 9.7 80 1018.3 3.1 W 4.5 0.0 0.2
21:28 13.1 9.7 80 1018.3 1.6 NW 4.5 0.0 0.2
21:29 13.1 9.7 80 1018.3 2.2 W 4.5 0.0 0.2
21:30 13.1 9.7 80 1018.4 3.1 WNW 4.5 0.0 0.2
21:31 13.0 9.6 80 1018.3 2.2 N 4.5 0.0 0.2
21:32 13.0 9.6 80 1018.4 3.8 N 4.5 0.0 0.2
21:33 13.0 9.6 80 1018.5 2.2 N 4.5 0.0 0.2
21:34 12.9 9.5 80 1018.2 3.1 NW 3.8 0.0 0.2
21:36 12.9 9.5 80 1018.4 3.8 W 3.8 0.0 0.2
21:37 12.9 9.5 80 1018.4 3.8 W 3.8 0.0 0.2
21:38 12.8 9.4 80 1018.4 2.2 WSW 3.8 0.0 0.2
21:39 12.8 9.4 80 1018.4 3.1 NW 3.8 0.0 0.2
21:40 12.8 9.4 80 1018.4 3.1 NW 3.8 0.0 0.2
21:41 12.8 9.4 80 1018.6 2.2 NW 3.8 0.0 0.2
21:42 12.8 9.6 81 1018.4 2.2 W 3.8 0.0 0.2
21:43 12.7 9.5 81 1018.4 1.6 W 3.8 0.0 0.2
21:44 12.7 9.5 81 1018.5 1.6 W 3.8 0.0 0.2
21:45 12.7 9.5 81 1018.4 3.8 W 3.8 0.0 0.2
21:46 12.7 9.5 81 1018.5 3.1 SW 3.8 0.0 0.2
21:47 12.6 9.4 81 1018.4 1.6 NW 3.8 0.0 0.2
21:48 12.6 9.4 81 1018.4 2.2 NE 3.8 0.0 0.2
21:49 12.6 9.4 81 1018.5 3.1 W 3.8 0.0 0.2
21:50 12.6 9.4 81 1018.6 3.1 W 3.8 0.0 0.2
21:51 12.6 9.4 81 1018.6 3.1 SW 3.8 0.0 0.2
21:52 12.6 9.4 81 1018.7 3.1 SW 3.8 0.0 0.2
21:54 12.5 9.3 81 1018.5 2.2 W 3.8 0.0 0.2
21:55 12.5 9.3 81 1018.6 3.8 W 3.8 0.0 0.2
21:56 12.5 9.3 81 1018.7 3.8 W 3.8 0.0 0.2
21:57 12.5 9.5 82 1018.6 2.2 NW 3.8 0.0 0.2
21:58 12.4 9.4 82 1018.6 3.1 NW 3.8 0.0 0.2
21:59 12.4 9.4 82 1018.6 2.2 NW 3.8 0.0 0.2
22:00 12.4 9.4 82 1018.5 2.2 W 3.8 0.0 0.2
22:01 12.4 9.4 82 1018.7 2.2 W 3.8 0.0 0.2
22:02 12.4 9.4 82 1018.6 2.2 W 3.8 0.0 0.2
22:03 12.4 9.4 82 1018.7 2.2 W 3.8 0.0 0.2
22:04 12.4 9.4 82 1018.6 2.2 W 3.8 0.0 0.2
22:05 12.4 9.4 82 1018.6 2.2 W 3.8 0.0 0.2
22:06 12.3 9.3 82 1018.6 2.2 N 3.8 0.0 0.2
22:07 12.3 9.3 82 1018.5 3.1 N 3.1 0.0 0.2
22:08 12.3 9.3 82 1018.6 1.6 N 3.1 0.0 0.2
22:09 12.3 9.3 82 1018.6 2.2 W 3.1 0.0 0.2
22:10 12.2 9.2 82 1018.4 1.6 W 3.1 0.0 0.2
22:11 12.2 9.2 82 1018.5 3.1 N 3.1 0.0 0.2
22:13 12.2 9.4 83 1018.5 2.2 W 3.1 0.0 0.2
22:14 12.2 9.4 83 1018.4 1.6 W 3.1 0.0 0.2
22:15 12.1 9.3 83 1018.5 1.6 NW 3.1 0.0 0.2
22:16 12.1 9.3 83 1018.6 1.6 WNW 3.1 0.0 0.2
22:17 12.1 9.3 83 1018.5 3.1 N 3.1 0.0 0.2
22:18 12.1 9.3 83 1018.5 3.1 N 3.1 0.0 0.2
22:19 12.1 9.3 83 1018.5 1.6 NW 3.1 0.0 0.2
22:20 12.1 9.3 83 1018.6 2.2 W 3.1 0.0 0.2
22:21 12.1 9.3 83 1018.5 2.2 W 3.1 0.0 0.2
22:22 12.0 9.2 83 1018.5 1.6 NW 3.1 0.0 0.2
22:23 12.0 9.2 83 1018.7 1.6 N 3.1 0.0 0.2
22:24 12.0 9.2 83 1018.7 0.7 N 3.1 0.0 0.2
22:25 12.0 9.2 83 1018.4 0.7 N 3.1 0.0 0.2
22:26 12.0 9.4 84 1018.6 1.6 N 3.1 0.0 0.2
22:27 12.0 9.4 84 1018.5 1.6 W 3.1 0.0 0.2
22:28 12.0 9.4 84 1018.7 0.7 S 2.2 0.0 0.2
22:29 12.0 9.4 84 1018.6 0.0 S 2.2 0.0 0.2
22:30 12.0 9.4 84 1018.6 0.7 SW 2.2 0.0 0.2
22:32 12.0 9.4 84 1018.6 0.0 N 1.6 0.0 0.2
22:33 12.0 9.4 84 1018.7 0.7 NW 1.6 0.0 0.2
22:34 12.0 9.4 84 1018.4 0.7 NW 1.6 0.0 0.2
22:35 11.9 9.3 84 1018.5 0.7 N 1.6 0.0 0.2
22:36 11.9 9.3 84 1018.5 0.0 N 1.6 0.0 0.2
22:37 11.9 9.3 84 1018.5 0.0 N 1.6 0.0 0.2
22:38 12.0 9.4 84 1018.5 0.7 W 1.6 0.0 0.2
22:39 11.9 9.3 84 1018.6 0.0 N 1.6 0.0 0.2
22:40 11.9 9.3 84 1018.5 0.0 NE 1.6 0.0 0.2
22:41 11.9 9.3 84 1018.5 0.7 N 1.6 0.0 0.2
22:42 11.9 9.3 84 1018.5 1.6 NW 1.6 0.0 0.2
22:43 11.9 9.3 84 1018.3 0.7 NW 1.6 0.0 0.2
22:44 11.8 9.2 84 1018.5 0.0 NW 1.6 0.0 0.2
22:45 11.9 9.3 84 1018.4 0.0 NW 1.6 0.0 0.2
22:46 11.8 9.2 84 1018.5 0.0 NW 1.6 0.0 0.2
22:47 11.8 9.2 84 1018.5 1.6 N 1.6 0.0 0.2
22:48 11.8 9.4 85 1018.6 1.6 NE 2.2 0.0 0.2
22:49 11.8 9.4 85 1018.5 0.7 NE 2.2 0.0 0.2
22:50 11.8 9.4 85 1018.6 0.0 NE 2.2 0.0 0.2
22:52 11.8 9.4 85 1018.7 0.7 N 2.2 0.0 0.2
22:53 11.8 9.4 85 1018.6 0.0 N 2.2 0.0 0.2
22:54 11.8 9.4 85 1018.6 1.6 NE 2.2 0.0 0.2
22:55 11.7 9.3 85 1018.5 2.2 NE 2.2 0.0 0.2
22:56 11.7 9.3 85 1018.6 1.6 NE 2.2 0.0 0.2
22:57 11.7 9.3 85 1018.6 1.6 NE 2.2 0.0 0.2
22:58 11.7 9.3 85 1018.6 1.6 N 2.2 0.0 0.2
22:59 11.7 9.3 85 1018.7 1.6 NE 2.2 0.0 0.2
23:00 11.7 9.3 85 1018.6 0.7 NE 2.2 0.0 0.2
23:01 11.7 9.3 85 1018.6 0.7 NE 2.2 0.0 0.2
23:02 11.7 9.3 85 1018.5 0.7 NE 2.2 0.0 0.2
23:03 11.7 9.3 85 1018.5 0.7 NE 2.2 0.0 0.2
23:04 11.7 9.3 85 1018.6 0.7 NE 2.2 0.0 0.2
23:05 11.7 9.3 85 1018.5 0.7 NE 2.2 0.0 0.2
23:06 11.7 9.3 85 1018.6 0.7 NE 2.2 0.0 0.2
23:07 11.7 9.3 85 1018.5 0.7 NE 1.6 0.0 0.2
23:08 11.7 9.3 85 1018.7 0.7 NE 1.6 0.0 0.2
23:09 11.7 9.3 85 1018.6 0.7 NE 1.6 0.0 0.2
23:10 11.5 9.1 85 1018.6 0.0 NW 0.7 0.0 0.2
23:11 11.4 9.0 85 1018.6 0.7 NW 0.7 0.0 0.2
23:12 11.4 9.0 85 1018.5 0.0 NW 0.7 0.0 0.2
23:13 11.4 9.0 85 1018.6 0.7 NW 0.7 0.0 0.2
23:14 11.4 9.0 85 1018.6 0.0 NW 0.7 0.0 0.2
23:15 11.4 9.0 85 1018.6 1.6 W 1.6 0.0 0.2
23:16 11.3 8.9 85 1018.6 1.6 NW 1.6 0.0 0.2
23:17 11.3 8.9 85 1018.6 0.7 NW 1.6 0.0 0.2
23:18 11.3 8.9 85 1018.6 2.2 NW 2.2 0.0 0.2
23:19 11.3 8.9 85 1018.6 1.6 NW 2.2 0.0 0.2
23:20 11.3 8.9 85 1018.6 1.6 NW 2.2 0.0 0.2
23:21 11.3 8.9 85 1018.5 2.2 NW 2.2 0.0 0.2
23:22 11.3 8.9 85 1018.6 1.6 NW 2.2 0.0 0.2
23:23 11.3 8.9 85 1018.6 2.2 W 2.2 0.0 0.2
23:24 11.3 9.0 86 1018.6 2.2 NW 2.2 0.0 0.2
23:25 11.3 9.0 86 1018.7 2.2 W 2.2 0.0 0.2
23:26 11.3 9.0 86 1018.6 2.2 NW 2.2 0.0 0.2
23:27 11.4 9.1 86 1018.6 2.2 W 2.2 0.0 0.2
23:28 11.4 9.1 86 1018.8 2.2 W 2.2 0.0 0.2
23:29 11.3 9.0 86 1018.6 2.2 NW 2.2 0.0 0.2
23:31 11.4 9.3 87 1018.6 3.1 SW 3.1 0.0 0.2
23:32 11.4 9.3 87 1018.6 3.1 NW 3.1 0.0 0.2
23:33 11.4 9.3 87 1018.6 3.1 NW 3.1 0.0 0.2
23:34 11.4 9.3 87 1018.6 3.1 NW 3.1 0.0 0.2
23:35 11.4 9.3 87 1018.7 2.2 SW 3.1 0.0 0.2
23:36 11.4 9.3 87 1018.6 5.4 SSW 5.4 0.0 0.2
23:37 11.4 9.3 87 1018.6 4.5 W 5.4 0.0 0.2
23:38 11.4 9.3 87 1018.7 3.1 SW 5.4 0.0 0.2
23:39 11.3 9.2 87 1018.7 3.8 W 5.4 0.0 0.2
23:40 11.3 9.2 87 1018.7 3.8 SW 5.4 0.0 0.2
23:41 11.3 9.2 87 1018.7 3.1 W 5.4 0.0 0.2
23:42 11.3 9.2 87 1018.7 3.8 W 5.4 0.0 0.2
23:43 11.3 9.2 87 1018.6 4.5 SW 5.4 0.0 0.2
23:44 11.3 9.2 87 1018.7 3.1 W 5.4 0.0 0.2
23:45 11.3 9.2 87 1018.7 2.2 W 5.4 0.0 0.2
23:46 11.3 9.2 87 1018.7 3.1 W 5.4 0.0 0.2
23:47 11.3 9.2 87 1018.7 2.2 W 4.5 0.0 0.2
23:48 11.3 9.2 87 1018.6 5.4 W 5.4 0.0 0.2
23:49 11.3 9.4 88 1018.5 4.5 SW 5.4 0.0 0.2
23:50 11.3 9.4 88 1018.7 4.5 W 5.4 0.0 0.2
23:51 11.3 9.4 88 1018.7 4.5 W 5.4 0.0 0.2
23:52 11.3 9.4 88 1018.8 4.5 SW 5.4 0.0 0.2
23:53 11.3 9.4 88 1018.7 5.4 NW 5.4 0.0 0.2
23:54 11.3 9.4 88 1018.7 3.8 S 5.4 0.0 0.2
23:55 11.3 9.4 88 1018.6 5.4 S 5.4 0.0 0.2
23:56 11.3 9.4 88 1018.6 5.4 W 5.4 0.0 0.2
23:57 11.3 9.4 88 1018.8 5.4 SW 5.4 0.0 0.2
23:59 11.1 9.2 88 1018.7 4.5 W 5.4 0.0 0.2

UK - WEATHER STATION TOPSITES - UK World Weather Websites

This is a private weather station, never base important decisions or events on data from this weather station. Although every effort has been made to make the data as accurate as possible it does not meet MetOffice standards. It is proved as a guide of local weather conditions. We accept no liability for any loss which may arise from use of the data.

Copyright © Carnkie Weather 2009 - 2018.